GFSNE_sfc_temp_000.txt.gz
Temp
42 41 43 44 43 44 43 42 39 34 37 44 45 50 50 48 49 48 49 50 48 47 47 48 50 52 53 54 54 55 55 61 61 62 62 63 63 64
42 40 41 43 42 43 43 42 41 39 35 43 46 46 49 50 50 47 47 49 48 46 45 45 46 48 48 50 51 52 54 54 58 60 60 61 62 63
39 39 39 41 41 40 40 41 40 40 37 41 44 45 45 45 47 47 46 46 46 45 43 43 44 44 45 45 47 48 49 52 51 55 59 60 61 62
38 37 39 43 39 37 37 37 37 38 37 35 39 41 42 43 43 43 46 46 45 47 46 45 45 43 44 44 43 44 45 46 48 49 54 57 60 61
37 36 36 35 33 33 32 32 33 38 34 33 32 36 37 39 40 41 41 41 45 47 45 43 42 43 43 43 43 43 44 44 44 45 46 51 54 57
33 33 33 32 31 31 32 31 33 31 33 32 33 34 34 37 36 34 37 38 38 44 45 42 42 43 43 42 42 43 44 44 44 44 43 44 47 52
31 32 32 34 37 36 35 33 32 31 31 31 31 33 33 33 32 33 31 32 35 35 36 37 37 37 39 42 44 44 44 44 43 43 44 43 43 47
29 31 32 34 34 36 36 36 35 30 29 28 28 28 29 30 32 33 31 30 32 34 35 33 37 37 38 37 40 39 40 41 42 43 43 43 43 44
28 28 30 33 33 32 33 34 35 35 33 31 29 30 30 32 32 30 29 30 32 36 34 33 32 33 32 36 38 39 39 40 40 41 42 42 41 42
29 29 28 29 30 31 30 29 30 31 32 33 32 32 33 34 33 33 32 32 32 35 35 31 30 24 23 28 36 38 38 38 38 40 41 42 41 41
30 30 30 31 33 35 31 29 30 30 34 36 36 36 36 37 35 32 29 28 26 29 32 33 30 28 22 23 25 35 36 37 37 37 40 41 41 40
27 29 31 31 32 32 30 29 28 30 32 31 31 34 35 34 36 35 32 28 27 20 28 30 23 24 24 19 20 22 26 34 36 37 40 41 41 43
27 27 28 31 32 32 32 29 29 32 31 30 31 31 32 31 32 34 34 32 29 28 30 30 23 21 21 21 19 20 23 27 32 34 37 40 41 42
27 28 29 31 32 32 31 30 32 31 30 29 28 28 30 30 32 34 34 33 34 34 32 31 26 24 21 16 20 19 19 23 31 31 32 35 38 40
29 30 30 31 30 29 31 31 29 29 28 27 27 28 29 31 32 32 29 32 32 33 34 33 32 27 29 25 21 17 19 20 24 28 28 29 30 32
27 26 25 26 25 24 25 27 27 28 28 28 27 28 30 29 29 29 26 30 31 31 34 34 33 32 28 23 25 18 22 22 19 27 27 27 28 29
26 22 22 22 22 23 23 24 25 27 27 28 28 26 27 27 28 28 31 30 29 24 27 30 31 31 29 27 22 26 21 24 23 24 26 25 25 27
25 20 19 20 20 21 21 22 24 25 27 23 20 23 24 25 26 28 28 28 27 25 25 25 26 26 26 25 28 25 22 24 22 24 26 24 23 26
23 21 20 19 19 21 21 21 21 23 25 25 28 28 27 26 30 28 28 27 25 25 25 25 26 24 20 15 20 28 23 25 22 24 25 25 23 24
21 21 20 20 21 21 20 19 20 21 21 23 23 25 25 25 22 24 24 23 22 21 22 24 24 25 22 17 13 15 28 24 24 22 22 24 25 28
19 19 19 19 19 20 19 18 17 19 19 20 20 21 22 18 20 20 19 19 18 21 20 21 21 22 21 19 15 13 19 29 27 24 23 22 21 21
16 17 17 18 17 17 18 19 17 17 18 17 18 19 20 19 20 21 18 16 17 16 18 21 23 23 18 19 11 7 14 19 25 27 27 25 21 18
14 14 14 14 16 16 16 17 19 17 17 16 16 16 18 18 17 16 15 17 19 20 20 19 20 20 18 17 15 12 13 16 16 16 14 23 27 26

GFSNE_sfc_temp_003.txt.gz
Temp
42 40 38 39 39 40 41 39 37 33 35 39 39 45 46 46 48 48 49 49 48 46 45 49 50 52 52 52 53 54 55 55 56 60 61 62 64 64
42 39 38 38 39 39 40 41 39 36 33 38 40 41 45 47 47 47 47 49 47 46 44 44 45 47 48 48 50 51 52 53 53 55 58 60 61 63
39 39 38 38 37 36 37 38 38 39 34 38 39 41 41 43 44 44 45 44 45 46 43 42 43 44 44 43 44 48 48 48 51 52 54 57 60 62
37 36 36 41 36 36 35 35 36 36 34 32 34 36 38 41 41 40 43 45 43 46 45 45 45 43 42 43 43 43 43 45 45 48 49 52 53 59
35 34 34 34 32 32 32 31 32 36 32 30 30 33 34 35 36 38 39 39 43 47 45 45 44 43 42 41 42 43 43 43 44 43 44 45 48 51
32 32 31 30 30 30 31 31 32 30 30 29 30 31 32 34 33 33 34 35 37 43 43 42 42 42 43 43 42 41 43 44 44 43 42 41 42 45
31 31 31 33 36 35 34 32 30 30 30 30 30 30 31 31 30 33 32 33 34 35 35 36 37 39 39 41 42 43 41 41 43 43 42 42 41 42
29 30 30 33 32 34 35 35 34 30 29 28 28 26 27 27 28 29 29 29 28 34 35 34 35 36 37 36 39 40 40 40 40 41 41 41 41 41
28 28 30 32 32 31 32 33 33 34 32 30 28 29 28 30 32 30 29 29 30 32 34 30 29 32 33 36 39 39 39 39 40 40 40 40 40 40
28 29 28 28 30 30 30 29 30 31 31 31 30 30 31 32 32 32 30 31 31 31 32 29 27 27 30 32 37 38 39 38 38 38 38 39 39 40
28 29 29 28 31 33 30 27 28 30 34 35 35 34 35 36 34 31 29 27 25 27 27 30 28 21 21 29 27 36 37 37 37 38 38 39 39 40
27 29 30 30 31 32 29 27 26 29 30 31 31 33 35 34 35 33 31 28 27 23 26 27 25 25 28 18 18 21 24 33 36 36 36 38 39 39
26 27 28 31 31 32 31 29 29 31 29 29 30 30 30 30 31 33 33 31 29 28 30 30 24 23 22 22 16 18 23 21 26 29 35 35 37 39
26 28 28 30 31 31 30 30 31 30 28 27 28 28 28 29 31 32 33 33 34 33 32 31 27 25 22 22 23 16 15 17 19 20 24 32 34 36
29 29 29 29 28 26 28 29 26 27 28 26 27 28 30 31 32 31 32 32 33 33 34 32 30 26 27 28 21 20 18 16 15 16 18 22 28 30
27 25 24 25 23 23 24 25 25 25 25 26 26 27 29 28 29 30 29 29 29 30 32 33 32 32 29 27 27 27 15 21 19 15 17 16 20 25
25 22 22 20 20 21 21 22 23 24 24 26 25 26 26 27 27 27 28 27 27 25 29 30 32 32 32 31 25 24 21 17 19 18 16 16 18 20
24 21 18 18 16 19 18 18 20 21 22 24 22 23 23 24 23 25 28 28 27 26 24 25 26 26 26 25 29 22 23 24 21 16 17 15 17 21
20 19 18 16 17 19 19 18 18 20 21 22 23 26 27 24 25 26 27 28 25 25 24 25 25 25 22 18 21 27 23 23 17 17 16 16 17 21
19 18 16 17 16 17 18 17 16 16 18 19 20 21 21 22 23 25 25 23 21 20 21 23 25 25 23 21 19 20 27 18 13 12 16 21 25 28
16 16 16 16 16 15 15 16 13 14 13 14 15 17 17 20 20 19 20 19 21 22 21 20 20 23 22 21 16 16 18 29 23 15 18 18 18 19
14 14 15 15 14 14 14 14 16 16 15 15 14 14 14 13 13 20 16 14 17 14 17 19 23 24 21 19 14 10 13 16 23 25 26 24 20 17
12 12 12 12 13 14 14 13 14 15 15 12 12 12 10 9 14 12 10 12 13 12 13 15 18 19 18 17 15 13 12 13 14 16 15 22 27 27

GFSNE_sfc_temp_006.txt.gz
Temp
38 39 39 40 41 41 41 39 36 32 34 38 38 43 44 45 45 46 47 48 47 46 45 45 48 50 51 52 53 54 55 55 54 54 56 62 62 63
41 40 39 40 40 40 39 38 37 36 32 37 39 41 43 46 46 45 44 48 46 45 44 44 44 44 47 49 49 50 52 53 53 54 54 55 61 62
39 38 37 38 36 36 36 36 36 36 33 37 38 40 41 42 44 44 44 44 45 45 45 45 44 44 44 43 44 46 48 48 49 50 52 53 55 61
36 35 35 39 36 36 35 33 34 35 34 32 34 36 37 40 41 40 43 45 43 44 45 45 45 45 43 43 42 43 43 44 44 45 46 48 51 53
33 32 33 33 31 32 32 32 32 35 32 31 32 34 35 37 37 38 39 40 42 45 44 44 44 45 44 43 43 42 43 43 43 43 43 43 44 47
32 32 31 31 30 30 31 31 32 31 31 31 31 32 32 34 35 34 34 36 37 42 43 42 43 43 43 43 43 43 42 43 43 43 42 41 40 42
31 32 32 33 36 35 33 31 30 30 30 30 30 31 30 30 30 33 32 33 35 36 37 38 39 39 40 41 42 42 41 43 42 43 42 41 42 41
29 30 30 32 32 33 34 34 33 29 28 28 28 28 29 29 30 30 29 28 27 34 34 34 37 36 38 39 39 40 41 41 41 41 41 40 40 40
28 28 29 32 32 31 31 32 32 33 31 30 28 29 29 31 31 28 29 29 29 32 33 32 33 34 36 38 39 40 40 40 39 40 40 39 39 39
28 28 28 28 30 30 30 30 30 30 31 32 30 30 32 33 32 32 31 31 32 32 33 28 32 30 32 34 39 39 39 39 39 38 38 38 38 38
28 28 28 29 30 32 29 27 28 30 34 35 35 34 34 34 34 31 28 27 26 29 30 30 31 28 29 33 34 38 39 39 38 38 38 39 39 39
26 29 30 30 31 31 29 27 26 29 31 30 31 33 35 34 34 33 30 27 27 26 29 28 30 28 28 29 31 33 34 36 37 37 37 37 38 38
26 26 28 30 31 32 31 28 27 30 29 30 29 30 30 31 32 33 33 31 28 28 33 32 28 27 28 29 29 29 29 30 31 33 36 35 35 38
26 28 27 30 30 30 28 28 29 28 27 28 27 27 28 29 32 32 33 33 34 32 34 32 30 30 28 27 26 27 27 27 28 29 30 32 34 34
28 29 28 28 27 25 27 27 25 25 24 25 27 27 29 31 32 31 31 32 33 33 34 33 31 29 30 29 29 28 29 27 26 27 28 28 29 30
27 26 25 25 22 22 23 24 23 24 24 24 26 28 29 29 29 30 29 29 29 30 32 33 33 32 30 30 31 30 26 30 27 26 26 25 27 28
25 23 22 21 19 21 21 21 21 22 22 23 24 25 27 27 27 29 30 29 28 28 29 31 32 32 32 32 27 30 30 26 27 27 25 26 27 27
23 19 18 17 16 18 18 18 19 19 20 22 23 25 25 25 26 26 28 28 27 27 28 29 28 28 27 27 30 29 27 28 27 27 25 25 25 27
19 18 16 16 16 17 18 18 16 18 19 20 21 21 23 25 25 25 26 28 27 28 27 27 26 27 24 22 24 28 26 26 26 25 26 24 24 25
17 16 15 15 16 16 16 15 17 17 17 16 18 19 19 22 21 23 24 23 24 24 23 25 26 25 25 23 22 23 27 25 25 23 24 25 26 28
15 15 15 15 15 16 14 14 14 15 15 13 15 15 15 19 23 19 19 17 19 22 20 20 20 22 23 22 19 19 21 28 26 24 23 22 22 23
13 13 14 14 14 14 14 14 14 15 15 14 12 12 12 14 15 17 15 15 16 17 18 21 23 24 21 21 17 16 18 20 23 25 26 26 24 20
11 12 12 12 13 13 13 12 13 14 15 14 12 12 8 11 14 14 14 15 16 16 18 19 19 19 18 18 18 17 17 17 18 20 19 26 27 28

GFSNE_sfc_temp_009.txt.gz
Temp
38 39 39 42 41 43 43 44 40 37 42 49 49 54 54 56 54 56 56 50 47 46 46 47 47 48 49 50 51 53 55 55 55 54 55 56 56 58
46 44 45 45 44 45 45 45 46 44 40 48 50 51 52 54 53 54 55 48 47 46 46 46 47 48 48 48 47 47 49 53 53 53 53 54 55 57
46 45 44 45 45 45 46 46 45 45 40 45 49 50 49 49 51 53 53 53 53 46 46 46 46 46 46 46 45 45 45 47 50 50 51 51 53 53
44 44 44 46 44 44 44 42 43 44 42 39 45 46 46 48 49 49 51 52 52 49 45 45 45 45 45 44 44 44 43 43 44 46 46 47 48 50
42 41 41 40 40 41 41 41 41 42 42 40 40 44 45 46 46 47 47 48 50 47 44 43 44 45 45 45 44 44 43 43 42 42 43 43 43 44
40 40 39 39 38 39 39 39 39 39 39 38 39 40 42 44 43 41 41 44 44 48 47 45 44 45 44 44 44 43 43 43 43 42 42 41 41 42
40 40 39 38 36 37 37 38 38 37 37 35 34 36 36 36 35 40 39 41 42 44 43 44 46 46 47 44 44 44 43 43 42 42 42 41 40 41
36 37 37 36 36 34 34 34 35 34 33 33 33 33 36 37 38 37 37 36 34 43 40 39 43 42 45 47 44 42 41 42 42 41 40 40 40 39
35 35 35 37 35 36 34 33 33 33 31 32 30 32 33 35 36 34 34 35 35 40 39 36 40 39 43 46 40 40 40 40 40 40 39 39 38 38
34 35 34 35 35 33 32 33 34 35 35 35 34 35 37 38 37 36 35 36 37 38 39 30 37 36 40 43 41 40 40 40 40 39 39 39 38 38
33 35 34 34 33 33 31 30 32 35 37 35 35 35 35 35 35 36 32 31 30 35 39 34 35 35 38 38 40 40 39 39 39 39 39 38 38 38
32 33 32 32 31 31 30 30 28 32 34 34 35 36 36 36 34 34 34 30 31 31 38 35 37 37 33 40 40 40 40 38 38 39 38 38 38 40
30 32 33 31 30 30 30 29 29 31 31 31 33 35 36 35 36 38 36 34 32 32 40 38 37 38 35 36 37 40 40 37 38 38 37 37 36 37
29 31 31 28 29 28 28 28 28 28 29 29 29 30 32 33 36 37 38 38 38 36 39 38 35 36 34 35 35 39 38 37 37 36 37 36 35 35
30 28 28 27 27 28 27 27 27 28 28 28 29 31 33 35 35 34 35 37 35 35 35 36 35 36 36 33 34 36 36 37 35 35 36 38 39 39
29 29 26 25 26 27 28 28 28 27 26 27 28 31 33 33 33 34 33 33 32 33 33 33 33 33 33 35 36 34 36 34 36 36 36 35 37 37
26 26 24 23 26 26 26 26 27 27 26 27 28 30 32 33 32 33 33 33 31 32 32 35 33 33 34 33 32 36 36 36 38 38 31 36 38 37
24 21 20 21 22 23 23 24 25 25 25 26 27 28 29 31 31 32 32 32 31 32 32 34 34 33 32 30 31 34 36 36 38 35 33 33 37 39
20 20 19 19 20 22 23 22 22 24 25 25 25 26 27 30 30 31 31 31 31 32 33 34 32 31 29 28 31 29 31 34 34 32 32 32 35 37
19 18 18 19 20 20 22 22 23 24 24 24 24 24 25 28 29 29 30 30 31 32 31 33 32 31 30 29 29 28 29 29 31 31 31 32 31 28
17 17 17 18 18 20 20 20 21 22 22 22 23 23 23 25 26 28 28 26 28 31 29 29 29 25 31 30 27 26 27 29 29 30 29 29 29 31
16 16 17 17 18 19 19 19 21 22 22 23 22 23 23 24 24 25 26 27 28 28 27 28 29 31 29 28 27 24 26 27 27 26 27 27 29 29
15 16 16 17 17 18 19 19 19 20 20 21 22 23 23 23 24 26 26 26 27 27 27 28 29 28 26 26 26 25 23 24 27 28 27 25 28 28

GFSNE_sfc_temp_015.txt.gz
Temp
47 46 46 45 44 44 45 45 38 36 41 48 46 54 52 53 57 59 59 55 50 50 50 50 51 52 52 52 52 52 52 53 55 56 57 57 57 57
47 46 45 45 45 45 45 45 44 41 37 46 48 51 54 58 58 58 57 52 49 48 48 48 49 52 51 51 51 51 51 51 51 52 53 55 56 56
48 47 48 49 49 50 51 50 49 47 42 47 51 53 53 54 55 56 56 56 56 47 46 47 47 48 48 48 48 49 49 50 50 51 51 52 53 55
46 46 47 50 48 49 49 48 48 50 48 44 49 50 51 53 53 53 55 57 56 53 46 46 46 46 46 45 46 46 46 46 47 48 48 49 50 51
47 46 47 47 45 46 47 46 47 48 47 46 45 49 50 51 51 52 52 53 56 52 45 45 45 46 45 45 45 45 46 45 44 44 44 44 45 45
47 47 46 45 45 44 45 44 44 43 44 44 44 46 48 50 50 48 47 51 51 55 52 48 47 46 45 45 44 44 45 45 44 43 42 42 41 42
44 46 46 45 41 41 41 40 40 40 41 41 42 43 45 46 45 47 45 47 48 50 49 50 51 52 50 45 47 45 44 44 44 44 43 42 41 41
41 43 45 43 43 40 38 37 38 37 36 37 38 38 39 41 43 41 41 39 37 46 44 43 47 47 49 50 44 42 44 44 43 43 43 42 41 41
41 41 42 45 42 43 41 37 36 35 33 35 32 34 35 38 39 37 38 38 37 42 42 38 43 40 45 48 43 43 42 42 42 42 41 40 40 41
39 40 40 40 41 38 37 36 37 38 38 37 36 37 39 41 40 39 38 37 39 41 42 33 40 38 42 43 43 42 42 41 41 41 40 40 39 40
36 37 37 36 36 36 34 32 34 36 39 38 37 37 37 36 37 37 33 31 31 36 41 37 37 37 39 40 42 42 41 41 41 40 40 40 40 39
33 35 35 35 34 33 32 31 30 33 35 35 36 37 37 37 35 36 35 31 32 32 40 37 38 38 33 40 41 41 42 40 39 40 40 40 40 41
31 32 35 30 30 30 30 30 30 31 31 32 33 34 36 37 39 39 38 36 33 33 39 39 34 37 37 36 40 40 41 40 41 41 39 39 40 40
29 32 32 31 30 30 29 30 29 29 30 30 31 32 33 35 37 40 40 38 39 37 40 39 34 37 36 34 35 40 41 41 41 39 39 40 39 39
31 30 30 29 29 29 29 29 29 30 30 30 30 32 34 36 39 39 39 38 37 38 38 39 37 35 36 34 35 35 35 37 37 36 38 36 36 39
28 28 29 28 28 29 30 31 31 31 30 30 30 33 35 35 35 37 36 36 34 35 37 37 38 37 35 36 36 35 37 35 38 37 35 35 35 38
25 28 27 26 26 28 29 30 30 31 30 30 30 31 32 34 34 37 37 36 33 33 34 37 37 36 36 35 33 36 35 35 39 38 36 37 37 37
26 24 23 23 23 25 26 27 28 28 29 30 30 30 30 31 32 35 36 35 34 34 35 37 34 33 33 33 34 33 36 36 39 37 36 35 37 40
23 23 22 22 23 24 25 25 25 28 29 28 29 29 29 30 31 32 33 34 34 35 36 36 35 33 30 29 29 30 31 33 33 34 36 35 35 37
23 22 22 22 24 25 25 25 26 27 27 28 27 28 28 29 30 30 31 31 32 34 34 35 33 31 30 28 29 27 30 30 31 32 33 35 33 30
22 22 23 24 24 24 24 25 26 26 26 26 27 27 28 28 29 30 29 30 31 32 31 31 31 30 34 34 30 29 29 30 29 29 30 32 32 33
23 23 23 24 23 23 24 24 25 26 25 25 25 27 28 29 27 28 29 28 29 30 30 32 34 34 32 30 29 29 29 31 29 29 28 28 27 27
22 22 23 23 23 23 23 23 23 24 25 24 24 26 27 27 28 29 29 29 29 29 30 30 32 33 31 30 29 29 27 29 30 30 29 29 29 28

GFSNE_sfc_temp_018.txt.gz
Temp
44 43 43 42 41 41 40 40 35 31 34 41 41 46 45 47 48 48 51 50 49 48 49 50 51 52 52 53 53 54 55 56 56 57 57 57 57 57
43 43 43 42 42 41 42 42 40 37 33 42 44 46 47 50 50 49 51 51 48 47 47 48 48 50 51 51 51 51 52 52 52 53 54 55 56 56
43 43 42 44 44 44 44 42 40 41 36 40 46 47 46 46 49 50 51 50 47 47 46 47 47 47 48 48 48 49 49 50 50 51 52 52 53 54
42 42 42 46 43 42 42 41 40 40 38 36 40 41 43 44 45 45 50 54 47 50 46 47 47 46 46 46 46 46 46 47 47 48 48 49 50 52
40 41 41 41 39 39 40 39 39 42 38 37 36 38 40 41 41 42 43 43 50 51 47 44 45 46 45 45 45 45 45 45 45 44 45 45 46 47
39 39 39 39 38 37 38 36 38 35 35 34 35 36 38 40 39 38 37 40 40 51 49 46 44 45 45 45 45 44 45 45 44 43 42 41 42 43
36 38 39 40 42 39 39 34 33 31 32 32 32 33 34 33 33 37 35 36 38 40 39 38 40 42 43 44 45 45 44 44 44 43 43 41 41 42
32 35 37 40 40 40 40 39 36 32 30 30 30 29 30 33 34 32 30 29 27 36 34 32 37 36 40 42 44 43 44 42 42 43 43 42 41 41
32 33 35 40 37 38 35 37 34 35 32 31 28 29 29 31 32 31 29 28 28 32 32 29 28 31 35 43 42 42 42 42 42 42 41 41 40 39
32 31 31 32 34 34 32 31 32 33 33 36 32 31 33 35 35 34 32 31 31 32 33 29 27 31 29 33 41 42 42 41 41 41 41 40 39 39
31 31 31 31 34 35 32 29 29 31 37 38 36 36 36 36 36 32 29 28 26 29 31 30 29 29 30 33 32 41 41 41 41 40 40 40 39 39
29 31 33 33 30 30 28 28 26 29 31 30 30 32 35 35 35 33 30 27 27 25 32 31 31 29 28 32 34 32 30 39 40 40 40 40 40 38
27 27 29 31 31 31 31 27 27 29 28 28 28 29 31 32 34 35 34 32 28 27 34 33 28 26 29 28 27 31 33 33 35 36 39 40 40 39
25 27 28 31 30 30 29 29 30 28 26 25 26 27 29 30 33 35 36 35 35 33 36 34 30 28 27 27 29 32 31 31 30 31 32 36 38 39
26 27 28 29 29 28 29 30 28 27 27 27 27 28 29 31 34 32 33 33 33 34 35 34 32 32 31 30 27 26 27 31 34 34 26 26 28 31
25 25 26 27 26 27 28 29 28 28 27 27 27 29 30 30 29 31 32 31 29 28 32 33 33 33 30 29 27 26 27 27 31 34 32 32 34 34
23 25 24 23 23 24 25 26 27 27 26 26 27 28 28 29 28 32 29 27 28 27 27 29 33 32 31 30 26 25 27 29 29 33 33 32 33 33
24 22 21 20 21 22 22 23 24 25 25 26 26 26 27 27 27 31 30 26 25 26 27 30 32 29 27 28 33 28 25 26 28 29 33 32 28 29
21 20 20 20 21 22 23 22 22 24 26 25 25 25 25 26 27 28 28 28 29 28 30 29 31 30 27 26 26 31 29 28 28 27 27 31 32 29
21 20 19 20 21 21 21 22 22 23 23 23 24 24 23 25 26 25 26 26 27 28 28 25 25 25 24 23 25 22 30 26 27 27 27 29 28 30
20 20 20 20 20 21 20 21 21 22 22 21 22 23 24 25 24 26 26 24 24 26 24 24 23 26 25 26 25 23 24 30 26 24 24 25 28 27
18 19 20 20 20 20 19 19 20 20 20 20 20 22 23 25 24 25 25 25 25 25 25 26 29 30 27 25 23 20 20 17 26 29 29 27 22 22
14 18 18 18 18 18 19 18 18 17 17 18 18 20 22 22 24 25 23 25 23 20 21 25 26 27 27 26 22 24 17 20 22 24 21 29 29 29

GFSNE_sfc_temp_021.txt.gz
Temp
39 42 41 41 40 41 41 39 35 31 30 35 36 43 41 42 45 45 45 46 46 46 47 50 51 52 52 52 53 53 56 58 58 58 57 57 57 57
39 39 38 41 41 41 40 40 38 35 32 37 40 42 47 49 45 45 45 45 45 45 47 47 48 50 50 51 51 51 52 51 53 53 54 55 56 56
38 38 39 40 40 41 41 41 40 39 34 37 40 41 42 44 46 45 46 45 45 46 46 46 46 46 47 48 48 49 50 50 50 51 51 52 53 54
35 35 36 41 37 37 38 37 37 38 35 32 34 36 39 42 41 41 47 51 48 49 46 46 46 45 45 45 46 46 47 47 48 48 48 49 50 51
35 34 34 35 34 35 36 34 34 38 33 30 29 33 35 38 40 39 39 40 47 49 46 44 45 45 45 45 45 45 45 45 45 45 45 45 47 48
34 33 34 34 33 33 35 34 35 31 31 29 30 30 31 34 34 33 32 34 36 45 45 42 43 44 44 44 44 45 45 45 44 43 42 42 42 43
31 33 34 35 38 38 37 34 31 29 28 27 27 27 27 27 27 30 29 29 31 35 34 35 36 38 40 42 43 44 44 44 43 43 42 41 41 41
28 30 31 34 35 36 37 36 35 29 27 26 26 25 26 27 28 27 26 25 25 33 31 29 34 32 36 39 43 42 43 43 43 43 42 41 41 41
27 28 30 34 32 32 34 35 34 35 32 29 27 27 27 27 28 27 26 25 25 29 29 24 25 29 32 39 41 42 43 42 42 42 41 41 40 39
28 28 28 29 30 31 30 29 29 30 31 32 29 30 29 31 30 32 30 31 29 29 29 24 23 26 27 30 39 41 42 41 41 41 41 40 40 39
29 30 30 29 31 33 29 26 27 29 34 36 36 36 35 35 35 32 29 28 26 27 27 25 27 23 24 27 30 39 40 41 41 41 40 40 40 39
26 28 30 30 30 30 28 24 23 26 28 28 27 30 32 32 34 32 30 26 27 25 28 27 27 24 21 25 30 31 27 38 39 40 40 41 40 37
24 25 27 30 30 31 31 27 26 28 28 27 27 27 29 30 31 33 32 30 27 27 32 31 24 23 24 24 23 25 29 31 31 33 39 40 40 39
23 25 26 29 30 30 29 29 30 29 26 25 25 25 26 28 31 33 33 32 33 32 35 33 29 29 28 23 25 28 27 28 28 28 28 35 37 38
25 26 27 28 28 27 28 29 28 28 26 25 26 27 28 29 31 31 31 32 32 34 34 33 32 31 30 28 26 25 28 28 24 29 33 33 29 30
25 24 26 26 25 25 26 26 26 26 25 24 25 27 29 27 26 28 30 29 24 24 31 32 32 32 30 30 30 29 27 23 26 33 34 32 28 30
23 23 22 22 22 23 23 24 24 25 24 24 24 25 26 27 27 29 30 26 24 22 25 27 31 31 31 31 28 28 27 25 25 26 30 32 34 30
22 19 18 19 19 21 20 21 22 23 23 24 24 25 24 24 26 27 28 25 25 24 23 27 28 29 30 29 31 29 25 23 23 25 31 31 30 30
19 18 17 18 18 20 20 20 20 23 24 22 22 23 23 24 25 23 24 24 26 28 26 25 25 26 26 25 24 31 27 27 25 22 23 28 30 32
15 18 17 18 18 18 19 19 19 20 20 20 21 21 22 23 21 22 23 21 25 26 24 24 21 21 21 20 18 15 31 19 19 21 23 24 26 30
12 16 17 18 17 18 16 16 17 17 16 17 17 19 20 22 22 20 20 20 21 25 23 22 21 24 25 21 20 16 15 29 23 17 19 16 22 27
6 11 16 17 16 16 16 15 15 14 14 14 14 15 18 20 20 21 21 21 17 16 19 21 26 29 25 22 19 18 18 12 23 29 29 26 19 20
3 7 8 11 13 14 16 14 13 11 11 12 12 13 14 16 18 20 18 18 20 16 17 21 24 24 23 22 19 21 13 14 16 18 18 28 29 29

GFSNE_sfc_temp_024.txt.gz
Temp
36 38 38 38 38 40 39 37 33 30 33 33 33 39 39 40 43 42 43 44 43 43 43 46 48 52 52 53 53 53 53 54 58 59 58 58 57 57
37 36 35 36 36 36 36 38 37 33 31 37 38 37 41 46 46 43 43 45 44 43 43 43 46 49 50 51 52 52 52 51 52 53 54 55 55 56
34 34 34 34 33 33 34 36 37 38 33 34 35 38 37 38 41 44 45 44 43 44 44 44 44 46 47 48 49 50 50 50 50 51 52 52 53 54
33 33 33 37 32 32 31 32 34 35 32 29 31 33 35 37 37 36 43 48 45 47 45 44 45 45 45 45 45 46 47 48 48 49 49 50 50 51
31 31 31 31 30 30 30 31 32 36 31 29 29 31 32 34 34 35 36 36 43 46 45 44 44 45 45 44 45 46 46 45 45 45 46 46 47 49
31 31 30 29 29 29 31 30 31 29 29 28 27 28 29 32 32 29 29 31 34 41 43 41 41 43 44 44 43 44 45 45 44 43 42 41 41 43
30 30 30 32 35 34 33 30 28 27 27 27 26 26 27 27 27 28 26 27 29 32 33 34 35 37 38 40 43 44 43 44 44 43 42 41 40 41
27 29 29 32 32 33 33 34 34 30 27 27 27 26 25 25 26 25 24 24 23 30 30 29 32 32 35 37 41 42 42 43 43 43 42 42 41 40
26 27 29 32 31 29 30 32 32 33 31 30 28 27 26 26 26 25 24 23 23 28 27 24 23 28 31 38 40 41 42 42 42 42 41 41 40 39
27 27 27 27 28 29 29 28 29 29 30 30 28 28 28 29 28 29 28 27 29 30 28 25 21 23 27 28 37 40 41 41 41 41 41 40 39 39
27 27 28 27 29 31 28 27 26 28 32 34 35 34 33 33 34 31 28 27 22 27 26 24 25 22 22 26 29 38 39 40 40 40 40 40 40 39
25 27 29 28 29 29 27 25 25 27 27 27 27 28 30 30 32 29 27 24 24 23 27 25 26 22 19 23 28 27 27 36 38 39 40 40 40 36
23 24 26 28 30 30 30 26 26 29 27 27 26 26 27 28 29 30 30 27 25 25 29 28 23 22 23 23 22 24 25 26 26 30 38 39 40 38
23 25 25 29 29 28 28 29 29 27 27 25 25 25 26 27 29 30 31 32 31 30 33 32 27 26 23 20 23 25 24 23 23 26 27 32 36 37
25 26 28 27 27 26 27 27 26 25 24 23 24 26 27 29 30 30 31 30 32 32 33 32 30 29 28 26 25 25 25 26 24 24 26 32 33 31
23 24 24 25 24 24 24 25 25 25 24 23 24 26 28 27 27 29 27 30 28 26 30 33 33 31 30 29 29 24 26 26 25 28 25 27 32 32
16 18 20 21 21 21 22 22 23 24 23 23 24 24 25 26 26 27 28 27 25 25 25 25 30 32 32 31 26 25 24 24 24 23 30 31 32 34
15 13 16 17 16 18 18 19 20 21 21 22 21 22 23 24 25 25 24 24 23 24 27 29 29 29 29 27 31 27 27 27 23 29 29 29 30 27
9 9 12 16 16 18 17 18 17 19 20 20 20 20 21 23 23 23 23 22 23 24 23 21 23 23 25 23 21 30 27 28 24 25 26 25 28 32
10 7 12 15 16 17 16 16 16 16 15 16 17 17 18 21 21 21 22 20 22 24 23 22 19 21 20 18 18 15 29 15 14 14 16 17 23 30
9 9 6 12 13 15 13 13 11 12 11 11 13 14 15 18 18 20 20 17 17 21 19 18 20 23 22 19 16 13 15 27 21 15 16 18 16 23
4 8 8 8 7 10 10 10 11 10 10 10 9 10 12 15 16 17 17 16 15 12 16 19 23 25 21 21 16 13 16 12 21 27 29 25 16 15
1 5 3 1 4 7 12 9 8 3 8 8 8 9 9 11 15 15 12 13 14 13 16 19 20 21 21 22 16 19 13 11 15 17 15 27 29 29

GFSNE_sfc_temp_027.txt.gz
Temp
34 34 34 35 34 35 35 36 33 28 30 32 35 39 37 38 42 40 40 45 44 44 43 44 45 47 51 52 53 53 54 54 58 59 59 59 58 58
34 32 32 32 32 32 32 33 33 32 29 35 35 36 37 42 43 39 40 46 44 43 43 43 43 44 46 49 51 52 52 53 54 56 56 56 57 57
32 32 32 32 31 30 30 31 30 29 27 32 34 36 35 35 38 37 39 39 40 44 43 43 42 43 44 45 46 49 50 51 51 52 53 54 55 55
31 30 30 35 29 29 29 29 29 30 29 27 29 30 32 34 34 34 39 43 38 44 44 44 44 43 43 43 44 46 47 48 48 49 50 51 52 53
30 30 30 29 27 27 28 28 28 32 29 28 29 29 29 30 31 32 34 32 39 43 43 43 43 44 45 45 45 45 45 45 45 45 46 47 48 50
31 30 29 28 27 27 28 27 30 28 28 28 27 28 28 30 29 28 28 29 29 37 40 41 41 42 43 44 44 45 44 45 44 43 42 42 42 45
30 30 30 31 34 33 31 28 27 28 28 27 27 27 27 26 26 27 26 26 27 29 31 33 35 36 37 39 42 43 44 44 44 43 42 41 41 42
27 29 29 31 31 33 32 32 31 27 26 26 26 25 25 25 26 25 24 23 22 28 27 27 31 33 34 37 40 41 42 43 43 43 42 41 41 40
26 26 28 31 30 28 30 31 31 32 30 27 26 26 26 26 26 24 23 23 23 27 26 23 24 28 32 37 39 40 41 41 42 42 41 41 40 39
26 26 26 26 27 29 28 28 28 30 30 30 28 28 28 28 28 28 27 28 27 28 27 26 22 23 27 29 37 39 40 40 41 41 41 40 39 39
27 27 27 26 28 30 27 26 26 28 32 33 33 33 33 33 32 29 27 26 21 25 25 23 24 20 22 25 28 37 39 39 39 40 40 40 40 39
24 26 28 28 29 30 27 25 24 27 28 27 27 28 30 29 31 28 25 23 23 19 25 24 25 22 18 21 22 24 25 36 38 39 39 40 40 34
23 24 26 29 30 29 29 26 26 27 27 28 28 27 27 28 27 28 27 25 23 23 27 28 21 21 21 21 21 23 23 23 24 28 37 39 39 38
23 24 25 29 28 27 27 28 28 26 25 25 25 25 26 27 29 29 30 30 30 29 32 31 25 26 23 19 20 22 21 20 21 22 23 31 36 37
22 25 27 27 26 25 26 26 25 24 23 22 23 25 26 28 29 30 30 31 31 32 32 31 29 27 28 24 22 21 21 23 20 22 21 25 27 32
19 19 20 24 23 23 23 23 23 23 23 22 23 25 27 27 27 28 28 30 28 27 31 33 32 31 29 29 27 24 25 25 24 25 24 21 24 31
12 10 13 17 18 19 20 21 21 21 20 21 21 21 23 25 26 27 27 27 24 25 27 28 31 32 31 30 28 25 24 23 23 24 25 24 24 32
13 6 3 7 12 16 16 17 18 17 18 19 19 19 20 22 24 25 25 25 24 24 23 27 28 29 28 28 31 28 27 27 29 28 29 29 27 24
7 4 -1 4 6 15 15 15 14 15 16 16 16 16 17 20 21 22 22 23 23 24 23 21 22 25 26 24 21 30 27 28 27 27 27 27 23 24
9 5 2 3 7 13 14 14 13 12 11 12 12 13 14 16 18 20 21 18 19 22 20 20 18 19 17 15 17 14 28 14 13 15 17 16 20 28
8 8 3 5 5 7 3 7 7 8 8 6 9 10 10 13 16 17 17 16 16 19 17 16 18 21 21 15 12 11 15 27 20 15 14 18 16 19
3 7 8 6 2 2 -2 -2 3 5 8 8 7 6 7 10 13 14 15 12 13 11 15 18 21 23 18 19 14 6 14 13 19 27 28 25 16 13
3 6 2 -1 0 -0 4 -1 -1 -3 5 7 7 7 5 7 11 11 11 11 13 13 14 17 19 19 19 21 15 13 16 12 13 17 15 26 29 29

GFSNE_sfc_temp_030.txt.gz
Temp
34 33 33 34 33 33 33 32 30 25 28 33 33 39 40 41 40 41 40 43 44 44 44 44 45 45 46 48 50 51 54 54 57 59 59 60 60 60
35 33 32 32 31 31 30 31 31 29 25 33 35 36 39 42 42 40 39 44 43 43 43 43 43 43 44 45 46 48 50 52 54 57 57 58 59 59
33 32 31 32 30 30 30 30 29 29 26 30 34 36 36 36 39 39 40 39 40 42 43 43 42 41 42 43 43 45 48 50 51 53 56 57 58 58
32 31 31 34 30 29 29 28 28 29 27 26 31 32 33 35 35 35 39 43 38 42 42 42 43 43 42 41 42 43 44 48 49 49 51 54 55 56
31 30 30 30 28 28 28 28 28 30 30 29 29 32 32 33 33 34 34 35 39 41 41 41 41 43 44 43 43 44 45 45 45 45 45 46 49 51
31 30 30 29 28 28 29 28 29 28 28 27 29 29 30 32 31 31 31 32 33 38 38 38 40 41 42 43 44 45 45 45 44 43 43 42 43 45
30 30 31 31 34 33 31 29 28 26 27 27 27 28 29 29 28 31 29 29 31 32 33 34 36 37 39 40 41 43 43 44 44 43 42 41 42 43
27 28 28 30 30 32 31 31 31 27 25 25 26 25 27 29 30 29 28 26 26 32 31 31 33 34 37 38 39 40 41 43 43 43 42 41 41 41
26 26 27 30 29 28 29 30 30 31 29 28 26 27 27 29 29 27 27 26 26 30 30 27 29 31 34 38 38 39 40 41 42 42 42 41 40 39
26 26 26 26 27 29 28 28 29 30 30 31 29 29 30 31 30 29 29 28 29 31 30 26 28 29 31 33 36 38 39 40 40 41 41 40 40 39
27 27 27 27 29 31 28 26 27 29 32 33 33 33 33 33 33 30 27 26 25 27 29 28 27 27 29 30 32 36 38 39 39 40 40 41 40 39
25 26 27 28 30 30 26 25 24 27 28 29 30 30 31 30 31 29 28 25 25 23 29 27 29 27 25 27 29 30 33 37 38 39 40 40 40 40
23 24 25 28 29 29 28 25 25 27 26 27 27 28 29 29 29 29 29 27 25 25 30 30 26 25 27 27 29 30 29 31 33 35 38 39 39 40
21 23 23 28 28 27 26 27 27 25 24 24 24 25 26 27 29 31 30 29 30 29 32 30 28 28 27 25 26 30 30 30 31 32 32 34 38 38
21 24 25 25 25 24 25 26 24 23 22 21 22 23 25 27 29 29 31 31 31 31 31 31 30 29 29 27 27 28 29 30 28 29 29 32 33 34
18 17 16 21 17 18 21 22 21 21 20 20 20 22 25 26 27 29 28 30 29 29 31 32 32 31 29 30 30 28 29 30 29 29 30 31 33 33
11 9 11 13 14 17 18 19 19 19 18 18 19 20 21 23 25 27 27 27 26 27 28 30 32 32 32 31 29 29 29 29 30 30 29 30 31 33
12 5 0 -0 5 13 14 15 16 15 15 17 17 18 18 19 22 25 25 25 25 26 26 27 29 30 30 29 31 30 29 29 31 32 30 29 31 33
7 5 -2 -3 1 11 13 13 13 13 14 13 14 14 16 18 20 21 22 22 23 24 24 25 26 27 27 25 26 30 29 30 29 30 30 30 29 31
9 6 2 2 7 10 11 11 12 11 11 10 11 10 11 15 17 17 18 17 19 22 23 24 24 24 24 23 24 25 27 24 23 23 24 24 25 27
9 10 5 7 8 8 1 0 -3 5 8 6 8 9 7 10 14 16 16 13 14 19 19 20 22 23 24 22 22 22 24 26 25 24 23 23 24 26
7 9 10 9 5 5 -1 -5 0 -1 4 7 7 7 7 8 10 11 13 13 15 16 17 20 23 25 24 24 22 17 23 22 23 26 28 27 26 23
7 8 7 3 3 2 6 2 1 -4 1 4 7 8 7 7 11 11 11 13 14 14 15 17 20 22 22 22 20 19 21 21 21 24 25 27 29 29

GFSNE_sfc_temp_033.txt.gz
Temp
46 45 45 45 44 43 42 41 36 31 35 41 41 48 48 48 49 49 49 47 45 44 44 45 45 46 46 47 46 49 50 52 55 57 59 61 61 62
45 44 44 44 43 43 42 41 39 36 32 40 42 44 45 46 47 48 49 45 45 43 43 44 44 44 44 45 45 45 47 49 50 53 57 59 59 60
44 42 42 43 42 42 42 41 39 38 33 37 41 43 42 42 44 46 48 48 49 44 43 43 43 43 43 43 43 44 44 46 48 50 53 58 59 60
41 41 41 42 40 41 40 38 38 38 35 32 37 39 39 41 42 43 45 48 48 46 42 42 42 42 43 42 41 42 44 44 45 48 47 55 56 58
40 39 39 39 38 39 38 36 36 35 34 32 32 38 38 38 38 42 43 45 47 44 42 41 41 41 42 43 42 42 43 44 43 44 44 44 50 53
39 38 37 37 36 36 35 34 34 32 32 31 32 33 35 37 37 36 37 43 43 46 44 41 39 42 41 41 43 43 42 44 43 42 43 41 41 45
37 37 36 35 33 34 34 33 32 31 30 30 30 31 32 33 33 36 34 36 39 43 42 44 45 46 47 44 44 43 43 43 43 43 41 41 40 42
34 35 35 33 34 32 31 31 32 30 30 30 30 29 32 33 36 34 33 31 30 43 39 40 44 43 44 46 39 40 41 43 43 43 42 41 41 41
33 33 33 34 32 33 32 32 32 32 30 30 28 31 31 34 35 33 33 32 33 37 37 35 40 39 43 45 39 39 40 41 42 42 42 41 40 39
33 33 32 32 32 31 31 32 33 33 33 32 32 33 34 35 35 35 33 32 36 37 37 28 37 36 40 42 38 38 39 39 40 41 41 40 40 39
32 33 32 31 30 31 30 29 30 32 34 34 33 33 33 33 34 33 30 30 30 33 37 32 35 35 38 38 41 38 38 39 39 40 41 41 40 39
32 32 30 29 29 29 28 27 26 29 30 31 33 35 34 34 32 32 32 29 30 30 38 33 36 37 33 39 39 40 40 37 38 39 40 40 40 46
29 29 30 28 29 29 28 28 26 28 28 29 30 33 34 34 35 34 33 32 31 32 39 37 34 35 34 36 39 41 40 39 39 41 39 39 40 43
27 28 28 27 27 26 27 27 26 27 27 27 27 28 29 30 33 34 34 34 34 34 38 35 32 33 32 33 33 39 39 39 39 39 41 40 38 39
28 27 25 25 25 26 25 25 25 25 24 24 25 26 28 29 31 32 33 34 34 34 34 33 33 33 33 32 33 35 36 37 38 38 38 40 39 40
26 27 23 23 22 23 25 26 25 23 22 23 24 26 28 29 30 31 31 32 33 33 34 33 33 33 32 34 35 34 36 33 38 35 37 37 39 41
23 25 24 23 23 24 24 24 24 22 22 22 23 24 26 28 28 30 30 32 30 30 32 34 33 34 34 33 32 34 35 36 38 36 36 36 37 39
25 23 21 20 20 21 22 22 23 20 20 21 22 23 23 25 26 29 30 29 28 29 30 31 33 32 33 32 33 35 36 36 37 36 36 34 36 39
24 23 21 20 20 21 21 21 20 21 19 19 20 21 21 23 25 26 27 27 28 29 30 30 31 31 30 29 32 30 33 33 33 32 33 33 34 35
25 24 22 22 22 22 22 21 20 20 19 18 18 19 19 21 22 23 25 24 26 28 29 32 31 30 29 28 29 30 28 32 33 33 33 34 35 29
26 25 24 23 23 23 21 19 18 18 16 16 17 17 18 19 21 21 23 21 22 26 26 27 29 27 30 30 28 30 30 27 29 32 32 33 34 33
27 26 25 25 23 22 21 19 19 19 18 18 17 18 18 18 19 19 21 21 23 23 24 27 30 31 30 30 29 27 30 31 29 27 29 28 32 31
27 27 26 24 24 22 21 21 19 19 18 17 17 18 17 17 18 20 20 21 21 21 22 24 27 29 29 28 27 29 26 28 32 33 31 27 28 29

GFSNE_sfc_temp_036.txt.gz
Temp
49 48 48 49 49 48 47 45 38 34 39 46 46 52 52 52 51 51 51 49 47 45 45 45 46 47 47 47 48 48 49 49 50 52 55 58 61 63
49 48 48 49 47 48 48 46 45 42 38 45 47 49 50 51 50 50 50 47 46 45 44 44 44 45 46 45 46 46 47 47 48 49 52 54 56 60
47 47 47 48 48 48 47 47 45 45 39 43 46 47 46 45 47 47 47 49 51 46 44 43 43 43 43 44 44 44 45 45 46 47 49 52 52 59
47 47 47 48 46 47 46 45 44 43 38 35 41 41 42 44 44 43 45 48 49 48 43 42 42 42 42 42 43 43 43 44 44 45 47 47 50 54
47 45 45 45 43 44 44 43 41 40 38 36 36 39 40 43 42 43 42 44 48 47 43 42 42 42 42 42 42 43 43 43 43 43 44 43 43 46
45 44 43 42 41 40 40 40 39 38 37 35 35 35 38 41 42 40 39 42 41 47 46 43 43 44 43 42 42 43 43 43 43 42 42 41 40 42
44 43 43 39 35 35 36 36 35 34 35 32 32 34 36 37 37 40 39 41 40 42 43 45 46 49 49 42 44 42 41 42 42 43 41 41 40 41
42 42 42 39 38 34 34 33 34 33 31 31 32 31 34 36 37 35 36 34 34 44 40 40 44 43 47 49 39 40 40 41 42 42 40 39 40 40
40 40 40 40 37 36 34 33 33 34 31 33 30 32 32 36 37 35 36 36 35 38 40 35 42 40 44 49 41 39 40 40 40 41 40 38 37 38
40 39 39 38 37 33 33 32 33 36 37 36 34 35 37 37 36 35 35 36 38 40 40 33 38 38 42 43 40 39 39 39 40 40 41 40 39 38
39 39 37 36 33 31 30 29 31 34 36 35 34 34 34 34 35 35 32 31 31 34 40 36 38 36 38 41 43 39 39 39 39 39 40 41 40 39
38 38 34 32 29 30 29 29 27 30 32 33 34 36 37 38 34 35 35 31 31 32 40 36 38 38 34 42 43 44 43 38 38 39 40 41 41 44
34 35 36 30 29 29 28 29 28 30 30 31 31 34 37 37 37 38 37 33 32 34 40 39 38 37 37 36 41 41 43 42 43 42 39 40 40 42
32 34 33 29 28 27 28 26 27 27 30 29 29 30 31 32 34 35 35 37 37 37 40 39 35 36 34 34 36 41 41 42 43 42 43 42 39 39
33 31 27 27 27 29 28 26 27 29 28 27 26 28 30 32 34 34 34 35 37 37 38 37 36 36 36 34 35 38 38 39 40 41 42 43 43 44
33 32 29 25 28 28 31 31 30 29 26 26 27 29 31 32 32 33 32 34 34 34 37 36 35 34 34 36 37 36 40 35 40 39 41 42 44 45
28 30 31 30 30 31 31 30 30 29 27 27 26 28 28 29 30 33 33 33 31 32 33 36 35 35 36 34 34 37 38 38 39 38 37 36 38 40
29 30 29 28 27 28 28 28 29 28 27 26 26 27 27 27 28 30 31 31 30 31 32 33 35 32 33 33 32 34 38 38 38 38 39 35 36 39
28 31 29 28 28 29 29 29 27 27 26 26 25 26 26 27 27 27 28 29 29 31 33 34 33 32 31 29 33 30 34 37 36 34 37 35 37 37
29 30 29 29 29 29 29 28 27 26 26 25 25 24 24 25 26 27 27 25 27 30 31 34 33 31 29 28 30 31 30 33 35 34 34 36 35 29
31 32 31 31 30 30 28 27 25 25 23 23 25 24 24 24 25 26 27 26 26 29 28 29 31 30 33 34 29 30 31 30 31 32 35 36 35 36
31 32 33 32 30 30 28 27 26 26 25 25 24 24 24 25 24 24 25 25 27 27 28 30 32 33 32 31 31 29 32 32 30 30 30 29 31 31
32 31 32 31 30 29 29 27 26 25 25 24 24 24 23 23 25 25 24 25 26 26 27 27 31 33 32 32 30 31 29 30 33 32 31 28 29 29

GFSNE_sfc_temp_042.txt.gz
Temp
42 42 42 44 43 41 40 38 34 30 32 38 38 43 42 42 44 43 43 46 46 46 46 46 47 48 48 49 49 48 49 49 49 50 50 52 52 53
43 43 43 41 41 40 40 39 40 37 32 38 40 39 40 45 45 42 42 46 45 45 45 45 46 47 47 47 47 47 47 47 47 48 49 50 51 52
42 42 42 43 40 41 40 39 37 37 33 36 40 39 37 37 40 40 42 41 42 45 45 45 44 44 45 45 45 45 45 46 46 46 47 48 49 50
41 41 42 46 38 38 36 35 35 36 33 31 35 35 34 36 37 37 41 44 41 45 44 44 44 44 43 43 43 43 43 43 44 44 45 46 46 48
42 41 39 38 35 34 33 32 33 37 33 31 30 33 33 35 35 36 37 37 42 44 44 44 44 42 40 40 43 43 43 43 42 42 43 43 43 44
40 40 39 38 34 32 33 30 32 30 30 29 29 30 32 34 34 32 32 34 34 42 43 42 42 43 43 42 42 43 43 42 42 42 41 40 41 41
38 41 39 39 40 36 34 29 28 28 28 27 27 28 29 29 29 30 29 31 32 34 35 35 38 38 39 41 43 43 42 41 41 42 41 41 40 40
35 36 37 40 38 38 37 36 33 27 26 26 26 25 27 29 29 28 29 27 25 32 32 31 35 34 38 40 38 38 36 39 41 40 40 40 39 39
34 34 36 41 33 31 33 33 33 34 32 29 27 27 27 28 29 27 27 27 26 31 32 29 31 30 36 43 39 40 40 40 40 40 38 39 38 38
35 34 33 33 28 29 28 27 29 30 31 33 30 29 30 31 30 30 28 28 30 32 33 26 28 29 31 32 40 41 41 40 40 40 37 38 37 36
35 34 35 32 31 32 27 25 26 28 34 34 34 34 35 35 35 32 27 26 24 28 32 29 29 30 31 30 32 40 40 40 39 39 39 37 38 37
31 33 32 30 31 30 22 22 21 25 26 27 28 31 33 33 34 33 31 27 26 25 31 27 29 30 27 30 32 30 30 38 39 39 40 40 38 37
28 28 29 32 31 31 30 24 23 27 26 26 27 28 30 31 30 31 31 30 28 27 33 33 28 29 27 28 29 32 30 29 30 32 39 39 38 38
28 28 29 32 32 31 29 30 31 27 23 21 24 25 26 28 30 30 32 32 34 32 34 33 29 29 27 26 26 32 30 28 31 29 28 36 39 37
28 30 32 32 32 30 32 32 26 23 20 17 21 23 25 29 31 30 31 32 33 34 34 32 28 29 26 25 28 31 30 31 28 27 28 29 31 31
29 30 27 27 25 25 24 27 25 23 21 19 18 23 25 26 27 29 26 29 29 30 34 32 33 31 26 26 29 29 32 28 31 27 28 29 32 31
23 23 23 26 25 24 24 25 24 24 21 19 18 20 23 25 25 27 28 27 25 26 28 32 33 32 30 29 29 27 29 31 31 30 29 28 29 30
23 20 21 23 23 22 21 21 22 22 22 21 19 21 21 21 23 25 28 26 23 25 26 29 30 30 30 29 30 27 30 32 32 31 29 25 26 27
24 21 22 26 23 23 22 22 20 20 21 21 18 18 19 22 21 23 24 25 23 24 25 28 27 25 23 24 27 32 28 31 30 29 29 29 30 28
27 25 25 27 27 24 23 23 21 19 19 19 15 16 14 17 20 18 22 21 22 25 24 27 26 25 23 23 25 25 32 26 25 29 25 25 28 31
28 27 27 28 29 24 22 22 18 16 16 13 14 15 13 17 16 20 16 19 21 24 22 23 24 28 29 27 24 26 23 32 29 25 27 27 25 25
28 28 27 27 29 28 23 22 20 21 18 18 15 12 14 14 15 14 14 12 19 20 22 24 29 29 27 28 25 22 23 23 29 30 30 28 25 25
30 29 28 28 28 28 25 22 24 22 21 19 17 15 11 11 17 16 14 16 18 16 20 19 25 28 27 27 25 25 22 23 25 25 23 30 30 30

GFSNE_sfc_temp_045.txt.gz
Temp
39 38 38 40 42 40 41 38 34 28 31 34 32 38 37 38 40 39 38 43 45 45 45 45 47 47 47 48 48 49 49 50 50 49 50 50 51 52
39 38 38 39 40 39 38 38 36 33 26 32 33 34 36 41 42 38 38 44 43 43 43 44 45 46 46 46 46 47 48 49 48 48 49 49 50 51
39 39 38 39 36 35 34 33 31 30 27 30 32 33 32 32 36 36 38 38 38 42 43 43 44 44 44 44 45 45 46 46 47 47 47 48 49 49
39 38 38 42 34 32 30 29 28 29 27 26 28 30 29 32 32 32 37 41 38 42 43 43 43 43 43 43 43 43 44 44 44 44 45 45 46 47
38 37 36 35 31 29 29 28 28 33 27 25 26 29 29 30 31 33 33 33 38 41 41 42 42 42 42 42 43 43 42 42 43 42 42 42 43 44
37 36 35 33 32 31 31 28 29 26 26 24 26 27 28 30 29 27 27 31 30 37 38 39 40 41 42 42 42 42 42 43 42 41 41 40 40 41
35 36 36 37 41 35 32 27 26 25 24 24 24 25 26 26 26 29 27 28 29 30 31 31 34 35 36 39 41 40 39 39 41 41 41 40 40 41
32 33 33 37 36 36 36 35 32 25 23 20 24 24 25 26 26 25 25 23 22 29 27 28 32 31 34 35 40 39 38 38 37 40 40 39 40 39
30 31 33 36 32 29 31 31 30 32 29 26 24 25 25 26 26 25 25 24 24 28 27 25 29 27 32 38 39 40 40 40 39 40 39 38 38 38
31 31 30 29 28 28 27 25 26 26 28 29 26 25 26 28 27 29 27 27 28 29 30 25 28 27 30 30 37 39 40 40 40 40 40 38 38 37
32 32 31 28 31 32 27 24 24 25 31 33 32 32 33 34 33 30 27 25 23 26 28 26 25 26 26 28 29 38 39 40 40 39 39 38 37 37
29 30 33 29 31 31 22 21 19 23 25 25 26 27 30 29 32 29 27 24 25 24 30 28 27 25 23 26 30 32 30 35 39 39 39 39 36 36
27 26 27 32 31 32 31 22 20 26 26 25 24 25 26 27 28 29 28 27 25 25 31 31 27 26 27 26 27 29 32 31 28 31 38 39 38 36
27 27 27 33 33 33 30 30 31 28 18 19 19 22 22 24 26 27 28 28 31 30 32 32 29 26 27 25 25 30 32 32 24 25 25 32 37 35
27 28 31 33 33 30 31 32 27 22 18 14 17 18 20 24 26 27 28 28 29 31 34 32 30 29 25 26 26 28 29 31 27 25 24 25 30 33
27 27 25 25 22 24 24 27 25 21 19 16 15 18 20 21 21 24 24 25 25 27 31 33 31 31 26 25 27 27 28 29 32 24 24 24 28 31
26 26 23 20 22 24 24 23 22 21 19 15 15 17 20 20 21 23 25 26 20 23 25 29 31 32 31 29 28 28 26 28 32 28 28 25 27 32
23 18 12 11 17 23 22 20 18 19 19 18 14 17 16 16 20 22 23 22 21 21 23 26 27 27 28 29 31 27 28 30 31 28 27 24 25 30
19 18 13 16 18 24 25 21 19 18 19 17 15 13 14 18 17 19 18 21 21 22 22 26 25 24 21 20 28 32 26 29 30 25 30 30 25 30
27 23 20 20 22 24 26 22 19 16 16 15 11 8 6 11 12 17 18 11 19 22 22 24 23 24 23 22 23 26 32 24 27 28 27 29 30 31
25 27 26 23 24 25 23 21 16 13 11 7 8 9 6 10 10 14 13 12 12 22 19 20 23 26 27 27 22 22 22 31 30 27 28 25 24 28
27 25 25 25 26 27 26 22 17 12 11 9 8 10 3 6 7 9 9 9 14 13 19 21 24 27 26 27 25 20 21 22 28 30 30 28 26 22
28 27 27 26 27 27 25 23 23 20 18 16 14 9 2 7 9 10 8 14 14 13 15 17 20 24 26 26 24 24 22 21 24 24 24 29 30 29

GFSNE_sfc_temp_048.txt.gz
Temp
37 37 36 37 39 40 39 36 35 27 26 29 30 34 35 35 37 37 36 41 43 43 43 44 45 45 46 47 47 48 48 49 50 51 51 51 51 51
38 36 36 36 36 35 34 34 33 30 23 28 29 30 33 37 38 36 35 41 41 42 42 43 43 44 45 45 45 46 47 47 48 49 50 50 50 50
37 36 37 37 35 33 32 31 31 29 25 27 28 29 28 29 32 33 35 34 35 40 41 42 42 42 43 43 43 44 45 45 46 47 47 48 49 49
38 38 38 41 34 32 30 30 28 28 26 24 25 27 27 29 30 29 34 38 34 38 40 40 41 41 42 42 42 42 43 44 44 44 45 46 46 47
37 36 35 34 32 30 29 28 27 31 26 24 25 26 26 28 28 30 30 30 35 38 38 39 39 40 40 41 42 42 42 42 42 42 42 43 43 44
38 36 36 33 32 31 30 28 28 26 25 24 25 25 25 28 27 25 26 29 29 34 35 35 37 38 39 39 40 41 42 42 40 40 41 40 40 41
36 36 35 36 39 35 30 27 26 24 24 24 23 24 24 25 24 26 25 26 27 29 28 29 30 32 32 36 38 39 40 41 40 39 40 40 40 40
32 33 33 36 36 37 36 34 30 25 23 19 21 21 23 24 24 24 24 23 22 27 26 26 29 29 31 32 36 38 40 41 40 38 37 40 39 39
31 31 32 35 33 30 32 32 30 31 28 23 21 21 21 24 24 23 24 24 24 28 26 25 27 26 31 35 37 38 39 39 40 39 40 39 39 37
32 32 29 29 29 29 27 26 27 26 27 28 24 23 24 27 27 28 27 27 26 27 26 23 28 26 29 29 36 37 38 39 39 40 40 39 38 37
33 32 30 29 31 33 27 25 25 26 31 32 32 32 32 32 32 28 24 23 21 25 27 26 25 26 28 29 30 36 38 38 38 39 40 39 39 37
30 30 33 30 32 31 23 22 19 24 25 25 26 27 28 28 30 27 25 22 23 22 26 25 26 28 24 24 25 29 27 35 35 36 39 39 39 34
28 28 28 32 32 32 32 24 21 26 25 25 24 24 25 25 27 27 27 24 23 23 28 28 27 28 28 25 25 27 27 30 32 30 35 38 38 36
28 30 28 32 33 33 31 31 31 27 21 19 19 20 20 22 24 25 26 27 27 26 29 30 27 29 27 27 24 26 30 33 32 26 25 32 36 35
29 29 31 32 33 31 32 31 27 22 18 13 17 17 19 22 25 25 26 27 27 28 31 30 29 29 29 27 26 25 28 29 33 26 23 25 31 33
27 29 26 27 22 23 23 27 24 22 20 18 15 16 19 20 20 21 20 24 24 24 28 29 29 28 26 29 28 27 26 26 29 30 23 25 31 31
26 24 25 22 22 23 23 23 24 22 19 17 15 15 17 19 18 21 21 22 19 21 22 27 30 29 29 30 28 29 28 27 30 28 25 25 30 32
27 22 24 19 20 20 21 22 22 20 20 20 15 16 15 15 16 20 20 17 18 20 21 24 24 24 25 28 29 26 26 29 31 27 29 26 29 32
26 21 20 18 18 20 21 21 22 21 20 20 18 15 13 15 14 16 16 17 18 20 21 23 21 21 19 15 25 32 24 27 28 28 28 28 28 30
27 27 24 21 20 21 22 22 22 18 18 17 15 11 5 10 11 13 15 8 13 18 21 22 21 20 19 18 21 22 31 23 27 28 27 29 29 31
27 27 27 26 23 22 22 21 19 17 17 12 12 10 3 10 8 11 10 10 10 18 17 18 21 24 25 27 19 20 20 30 29 26 27 25 23 28
27 27 27 27 25 24 23 23 18 18 17 15 9 5 2 5 6 6 5 6 12 11 15 18 23 25 26 25 24 18 20 21 27 29 29 28 24 21
28 27 27 27 27 25 25 25 22 21 21 18 15 12 3 5 8 6 6 10 12 11 13 14 18 22 22 24 23 23 24 21 24 23 24 29 29 30

GFSNE_sfc_temp_051.txt.gz
Temp
36 35 35 36 36 36 36 34 34 24 25 29 29 31 32 32 34 35 33 39 41 41 42 43 43 44 45 46 46 47 48 48 49 50 50 51 52 52
37 37 36 36 36 34 33 33 32 30 24 27 28 29 30 34 34 33 32 38 38 39 40 41 42 43 43 44 44 45 46 46 47 48 48 49 50 51
37 36 36 36 34 33 32 31 29 29 25 27 27 28 26 27 30 29 32 31 32 38 39 40 40 41 41 42 42 43 43 44 45 46 47 47 49 49
36 36 36 40 34 32 31 30 29 28 26 24 25 25 26 27 27 27 32 35 32 36 38 39 39 39 39 40 40 41 42 42 43 43 44 45 46 47
37 36 36 35 33 31 30 29 27 30 26 24 25 25 25 26 27 27 28 29 33 37 36 37 37 37 38 39 40 40 41 41 41 42 42 42 42 44
36 35 35 34 32 30 30 28 28 26 25 23 24 25 24 26 25 24 25 28 28 33 34 34 36 36 37 38 38 39 39 40 41 41 40 39 39 41
34 35 34 35 38 34 31 27 26 24 23 22 22 23 23 23 23 24 24 25 27 28 28 28 30 30 31 34 35 37 38 39 40 40 40 39 38 40
32 32 32 35 36 38 37 35 29 24 22 19 20 20 21 22 22 22 22 22 22 27 25 26 29 28 30 31 34 36 37 38 39 39 40 39 38 39
30 30 32 35 34 32 34 34 32 32 28 22 19 20 19 23 23 23 23 24 24 27 26 25 28 26 31 34 36 37 37 38 38 39 39 39 38 38
30 32 33 31 30 29 28 26 27 27 27 27 23 23 23 25 25 27 26 25 26 27 26 22 26 26 29 31 35 36 37 38 38 39 39 39 39 38
31 31 31 29 32 34 27 26 26 27 31 32 32 32 32 32 31 24 21 21 20 23 27 22 23 25 28 28 30 35 38 38 38 38 38 38 39 39
29 30 34 31 32 33 25 23 21 25 26 25 25 27 28 27 29 26 23 20 20 20 26 21 25 26 24 23 24 28 28 33 36 36 36 37 38 35
29 29 29 32 33 33 32 24 22 26 25 25 25 24 25 25 26 26 25 22 20 21 27 26 23 25 27 25 24 25 25 28 30 33 34 34 38 37
29 29 29 33 33 33 31 31 31 27 23 21 19 20 20 21 24 24 25 25 26 25 27 26 24 25 25 24 25 25 25 29 32 32 29 31 35 37
30 30 32 32 32 32 32 32 27 23 20 14 18 18 18 22 24 24 26 25 25 27 30 26 26 25 26 24 25 28 27 29 30 30 31 28 27 31
30 31 29 29 27 27 25 27 24 23 22 20 17 16 18 19 18 20 18 21 21 21 26 27 27 26 23 26 28 28 27 26 27 30 27 24 28 32
29 29 26 26 25 25 24 24 23 21 19 16 16 16 17 18 17 19 19 20 15 17 20 25 27 27 26 28 24 25 25 26 30 29 26 26 29 32
28 26 25 24 25 23 23 23 21 20 21 19 16 17 17 15 15 17 18 15 14 17 18 21 22 21 24 26 29 25 25 27 30 30 30 27 26 31
28 25 25 24 24 23 22 22 21 20 21 19 18 17 16 16 14 15 14 15 15 17 18 20 21 19 17 14 22 31 25 26 27 26 28 28 27 28
30 26 22 23 24 23 23 22 22 21 17 17 15 17 12 11 11 12 13 7 11 16 18 20 19 20 18 17 18 19 29 27 24 26 27 29 29 31
30 29 27 26 25 25 24 22 22 20 13 11 16 16 11 11 9 11 9 9 8 17 16 16 18 23 24 25 18 18 20 29 29 26 25 23 22 25
30 27 28 27 27 25 24 22 20 17 14 15 15 15 11 9 8 6 2 4 11 10 13 17 20 23 23 24 22 20 21 20 26 29 29 28 25 19
29 27 27 27 28 27 25 23 23 20 19 18 19 16 11 7 9 7 4 8 11 10 11 12 16 18 19 22 21 20 22 21 22 22 22 28 29 29

GFSNE_sfc_temp_054.txt.gz
Temp
37 38 36 36 36 37 37 35 32 28 29 32 32 34 34 35 35 36 34 36 38 39 39 41 42 43 44 45 45 46 47 47 48 49 49 50 50 52
37 36 35 35 35 35 34 34 33 31 28 31 31 32 33 35 35 35 33 37 37 37 38 39 40 41 41 42 43 44 45 45 46 47 47 48 49 50
37 36 35 35 34 33 33 33 32 30 27 30 30 31 30 30 31 31 32 32 33 36 37 38 39 39 40 40 40 41 42 43 44 45 46 47 48 49
37 36 35 38 33 33 31 32 30 30 28 26 28 28 28 30 29 29 31 34 33 35 37 38 38 38 38 38 39 39 40 41 42 42 43 44 45 46
36 35 34 33 32 32 32 30 29 31 28 26 26 28 28 29 29 29 29 31 33 36 36 36 36 37 38 38 38 39 39 40 40 40 41 41 42 43
35 34 34 33 32 32 31 29 29 27 27 25 25 26 27 28 27 25 26 29 29 32 33 34 35 36 36 36 37 37 38 39 39 39 39 39 39 40
34 34 33 34 38 35 32 30 28 26 25 25 24 25 25 24 23 26 24 26 27 30 30 31 33 33 33 34 35 36 36 37 38 39 39 39 39 40
32 32 32 36 36 37 38 37 31 26 25 23 23 23 23 23 24 23 23 23 22 31 28 28 32 30 32 34 35 36 37 38 38 39 39 39 39 39
32 32 32 35 36 34 34 36 34 33 28 25 23 23 21 24 25 23 24 24 24 28 28 25 30 28 33 34 35 36 36 37 38 38 38 38 38 38
31 31 30 31 31 32 30 28 29 29 29 29 26 25 25 27 26 27 25 25 27 28 29 21 28 27 31 33 35 36 36 37 38 39 38 38 38 38
32 31 31 30 32 35 29 27 27 28 32 33 33 32 32 32 32 27 23 22 19 23 28 24 27 26 29 30 33 35 37 38 38 38 38 38 37 37
30 30 34 32 32 33 28 25 22 26 27 27 27 29 30 29 30 27 25 20 20 19 28 24 26 26 24 30 31 34 34 34 35 36 37 37 36 35
30 29 30 33 34 34 33 26 24 28 26 26 26 26 27 27 27 28 27 24 21 21 28 26 25 25 25 26 30 32 32 32 33 33 35 35 34 35
30 30 30 33 34 34 33 31 30 27 25 23 22 22 22 23 26 27 27 27 27 25 28 27 23 24 24 24 24 30 31 33 32 32 33 34 34 35
31 31 32 33 34 32 32 32 30 27 25 23 22 22 23 25 27 26 27 27 26 27 29 27 26 26 25 23 24 27 28 32 32 31 32 32 31 32
30 32 30 30 29 30 29 30 29 27 26 24 22 22 22 22 22 23 21 22 22 22 26 27 27 26 23 25 26 28 29 26 30 32 32 30 33 34
29 28 29 28 27 27 27 27 27 26 24 23 20 21 20 21 21 22 21 21 18 19 21 25 27 27 26 24 24 28 28 28 30 31 30 30 33 32
28 28 27 27 25 26 25 25 25 24 25 23 20 21 20 19 20 20 20 19 17 18 19 22 22 22 24 27 30 27 28 27 29 31 30 28 30 32
29 28 28 27 26 26 26 25 24 25 25 22 22 20 19 19 18 19 18 18 17 18 20 21 21 20 18 17 25 30 26 28 27 29 30 30 29 30
30 29 29 28 27 26 26 25 24 24 22 21 19 18 16 17 17 17 18 14 15 18 19 21 20 20 18 19 21 24 29 27 26 25 26 29 31 31
27 27 30 29 27 27 26 25 24 24 21 17 18 16 14 16 15 16 16 11 11 18 18 18 21 22 23 25 21 22 26 28 29 26 27 25 26 29
27 28 29 30 29 27 26 25 24 23 20 17 17 16 15 16 15 14 12 13 16 16 16 19 21 23 23 23 22 23 25 26 28 28 29 28 27 24
19 21 27 29 28 28 26 25 24 23 22 20 20 17 16 16 16 14 13 14 15 15 16 16 18 20 20 21 21 21 22 24 25 25 26 28 29 29

GFSNE_sfc_temp_057.txt.gz
Temp
49 49 49 51 49 49 49 48 44 38 42 47 44 48 48 48 46 45 44 42 39 39 39 40 41 42 43 43 44 45 46 47 48 48 49 50 50 50
50 48 48 49 49 49 49 48 47 43 39 47 46 46 46 46 45 43 43 39 39 38 38 38 39 40 41 41 42 43 44 44 45 46 47 48 48 49
48 48 47 48 48 48 47 47 46 45 40 44 46 45 43 43 43 44 42 42 43 39 38 37 38 39 39 39 40 40 41 42 43 44 45 46 47 48
48 47 46 48 46 47 46 45 45 45 42 39 43 43 41 42 41 40 41 42 41 39 37 37 37 37 38 38 39 39 40 40 41 41 43 44 44 45
48 47 47 47 45 46 45 45 45 44 43 40 39 43 41 41 40 40 40 40 41 39 37 37 37 37 37 38 38 38 39 39 39 40 40 41 41 42
47 47 47 46 46 46 45 44 44 42 41 39 39 39 40 41 39 36 36 39 38 40 39 37 36 37 37 38 37 37 38 38 39 39 39 39 39 40
47 46 46 45 42 43 44 44 42 41 40 38 38 38 37 37 35 36 34 36 37 39 39 40 40 41 41 39 39 39 38 37 38 38 39 39 39 39
46 47 46 41 41 38 38 37 39 40 37 37 37 35 36 36 36 34 33 32 30 41 37 35 40 39 41 42 39 37 37 37 37 38 38 39 39 38
47 46 46 44 40 43 39 37 36 35 33 38 34 35 34 36 35 33 33 32 32 36 35 32 37 36 40 41 38 37 37 37 37 38 38 38 38 38
46 45 45 45 44 42 41 40 40 40 39 37 37 38 38 37 36 34 32 32 34 37 37 28 36 34 38 40 38 38 37 38 38 38 39 38 38 37
45 44 44 44 40 36 37 36 37 38 37 35 35 34 33 32 33 34 30 30 28 32 36 32 34 33 35 37 41 38 37 37 37 37 37 37 38 37
44 43 37 40 36 34 35 34 32 36 38 37 37 36 35 36 33 34 34 28 28 28 37 29 31 32 28 36 38 39 39 38 37 37 37 37 37 39
41 41 42 35 34 34 35 35 33 37 35 35 36 36 36 36 37 37 36 33 29 29 35 32 30 31 29 29 34 37 38 39 39 40 38 37 37 36
37 41 41 36 34 34 35 35 33 32 33 32 32 32 33 34 36 37 36 35 35 32 35 32 27 28 26 26 28 35 36 38 39 38 39 37 37 36
38 38 36 35 34 34 33 34 32 32 31 30 30 32 34 36 36 34 34 34 33 33 33 33 31 31 30 27 28 31 32 36 37 36 35 35 35 36
35 35 34 33 33 34 34 33 34 34 32 31 32 34 35 32 31 33 30 31 29 30 32 33 32 31 29 31 32 30 33 30 35 35 34 34 37 38
34 34 33 33 32 31 32 33 34 33 31 32 30 31 30 31 30 32 30 30 27 27 28 32 33 32 32 29 28 31 33 32 33 33 33 32 36 35
33 31 32 32 31 31 31 32 32 31 32 32 30 30 29 30 30 30 30 28 27 28 28 30 30 29 32 33 32 31 32 31 33 34 34 31 34 37
31 33 32 32 31 30 30 32 31 32 32 31 30 30 29 30 28 28 28 28 27 27 28 29 28 27 25 24 32 30 29 31 32 33 34 32 31 35
31 32 32 33 32 32 32 32 32 32 30 30 30 30 29 29 28 27 28 26 26 27 27 30 29 28 25 24 24 30 30 29 30 29 30 32 36 32
22 22 28 32 32 33 32 32 31 30 30 29 29 29 28 28 28 28 28 24 23 25 25 27 29 26 29 30 25 28 31 29 30 28 29 31 32 33
18 19 21 23 26 32 32 31 30 30 29 29 29 29 29 28 28 28 27 26 26 26 26 28 29 30 30 28 27 27 29 31 31 29 29 28 28 27
16 16 18 19 22 24 28 32 31 30 29 29 29 28 28 26 28 28 27 26 26 25 25 26 28 29 28 28 26 27 26 28 29 30 31 28 29 29

GFSNE_sfc_temp_060.txt.gz
Temp
48 50 53 57 57 57 56 54 50 44 48 54 54 57 56 55 52 52 50 47 43 41 41 40 41 42 42 43 43 44 45 46 46 48 48 49 50 51
49 53 55 56 56 56 55 54 54 50 45 54 54 55 54 54 52 50 49 45 44 43 41 40 40 40 40 41 41 42 43 43 44 45 46 47 48 49
54 54 54 55 55 55 55 54 52 52 47 51 54 55 52 49 50 51 50 49 49 44 42 41 39 39 39 39 39 40 41 42 43 43 44 45 46 47
54 54 53 55 53 54 53 52 52 52 49 45 50 51 50 51 49 47 48 50 48 45 42 40 39 38 38 38 39 39 40 40 41 41 42 43 44 45
55 54 53 53 52 53 53 52 52 52 50 48 47 50 50 49 48 48 47 47 49 45 42 41 40 39 39 39 39 39 39 39 39 39 40 40 41 42
54 53 53 53 52 52 52 52 51 50 49 48 47 47 47 48 48 45 44 46 46 48 45 42 40 41 39 39 39 39 39 39 39 39 39 38 38 39
54 54 54 52 47 48 52 51 50 48 48 45 44 43 43 43 44 45 42 43 44 46 45 46 46 46 46 44 43 41 40 39 38 38 38 38 39 39
52 54 55 48 46 40 39 39 43 46 44 41 39 37 40 44 45 43 41 39 36 46 43 41 45 44 45 47 42 39 39 39 38 38 38 38 38 38
53 53 53 55 48 50 41 37 38 37 35 42 39 39 41 44 43 41 40 39 38 42 41 37 43 41 45 46 41 40 39 39 38 39 39 38 38 37
52 52 52 52 52 49 48 47 47 45 41 41 42 44 44 45 43 41 39 38 39 42 43 34 41 39 42 44 41 40 39 38 38 38 38 38 37 37
51 52 52 51 46 41 46 44 45 43 42 39 38 37 36 35 35 38 35 34 32 38 42 37 38 37 39 41 42 40 39 39 39 38 38 38 37 37
48 49 43 45 42 37 43 41 39 42 41 41 41 38 36 39 34 37 37 32 34 33 41 35 37 36 32 39 41 41 42 40 39 39 39 39 39 41
42 44 47 40 37 37 37 41 39 43 39 41 41 40 40 42 42 39 39 37 34 35 41 37 35 35 34 34 38 39 40 40 41 41 40 39 39 38
38 40 41 38 36 36 36 36 36 35 38 36 35 36 36 37 40 41 40 40 41 38 40 38 32 33 32 31 32 37 38 39 40 39 39 39 37 37
39 38 36 35 34 34 33 34 34 36 34 33 34 35 36 40 40 39 39 39 39 39 38 37 34 35 34 31 31 33 34 37 39 37 38 37 35 38
36 39 37 34 34 34 34 34 34 34 34 34 36 37 38 37 36 36 34 34 33 35 38 38 36 35 32 34 34 32 34 32 37 37 36 36 38 39
31 34 36 37 38 38 37 35 35 34 34 34 35 34 34 35 34 35 34 32 31 32 34 37 39 37 36 33 30 32 33 34 36 35 35 34 37 39
32 32 32 33 34 37 37 36 34 33 35 35 35 34 32 32 32 33 34 31 30 33 33 35 35 34 35 36 35 32 33 34 34 35 35 31 35 39
29 29 28 29 33 37 37 36 33 35 35 34 34 33 32 32 31 31 31 31 30 33 34 35 34 31 28 26 34 32 31 32 32 32 34 33 32 36
28 26 25 27 27 29 34 34 34 35 34 33 32 32 32 31 31 30 30 29 30 32 33 35 34 33 30 27 27 32 31 30 31 30 31 33 37 35
24 25 24 23 25 26 28 32 33 33 33 32 32 32 31 31 31 31 31 30 29 31 30 32 35 29 33 33 27 29 33 30 30 30 30 31 33 34
22 22 23 23 21 23 25 28 30 32 32 32 31 31 31 31 30 30 30 29 29 30 32 35 35 34 33 31 29 29 32 34 33 30 29 28 28 27
20 20 20 21 21 20 22 23 25 27 32 32 32 32 31 30 31 31 31 30 30 31 31 31 33 34 32 32 30 30 29 30 33 33 32 29 29 29

GFSNE_sfc_temp_063.txt.gz
Temp
46 48 48 54 58 58 58 56 51 45 48 54 55 60 60 59 56 55 53 50 46 44 44 44 43 43 42 43 43 44 45 45 46 46 47 48 49 50
46 46 50 56 58 58 57 56 54 50 46 54 55 57 58 58 56 54 52 49 47 45 44 43 43 42 42 42 41 42 42 43 44 45 45 46 47 48
45 49 53 56 56 56 56 56 53 52 47 51 55 56 55 54 55 54 53 51 51 47 44 43 42 42 41 40 40 40 40 41 42 43 44 45 45 45
47 52 53 56 54 55 55 53 53 53 51 47 52 52 53 54 53 52 51 53 51 49 45 43 42 42 41 40 40 40 40 40 41 41 41 42 43 44
51 54 54 53 53 54 54 53 54 54 53 50 49 53 53 53 51 51 50 50 51 49 45 43 43 42 42 41 41 40 40 40 39 40 40 40 40 41
53 54 54 54 53 53 54 53 54 52 51 50 49 49 51 52 50 47 45 49 47 51 48 45 44 44 44 43 41 41 40 41 40 40 39 39 38 39
52 54 55 54 49 49 53 51 51 51 50 49 47 48 47 46 44 46 43 45 46 47 46 47 47 47 47 45 45 43 42 40 40 39 39 39 38 38
52 54 56 51 49 44 43 42 45 47 46 46 45 43 44 44 44 42 42 40 38 47 44 43 45 44 46 47 43 41 40 40 40 39 39 39 39 38
52 53 54 57 51 55 46 41 40 39 36 44 42 42 41 43 43 40 40 40 39 43 42 38 43 41 45 47 43 41 40 40 39 39 38 38 38 37
52 53 53 53 53 51 51 50 49 48 45 44 43 44 44 45 44 43 40 40 40 42 43 34 42 40 43 44 42 41 40 40 39 39 39 38 38 37
51 51 51 51 46 43 45 45 46 46 46 41 42 41 38 37 36 39 35 34 33 37 42 39 39 38 40 40 43 40 38 38 39 39 39 39 39 38
45 46 42 43 38 37 40 42 41 44 45 45 40 40 38 40 34 37 38 32 33 33 40 37 37 37 32 39 40 41 41 40 39 39 40 40 39 40
38 40 43 39 38 38 36 37 37 41 41 42 41 41 40 41 41 40 39 36 33 34 40 38 35 35 34 34 38 39 40 39 39 40 40 40 39 38
35 37 38 36 35 35 36 36 35 34 36 36 35 36 37 37 41 42 41 40 40 38 41 40 34 33 32 31 31 37 38 38 39 38 38 39 39 38
35 35 34 34 35 35 36 34 33 34 33 32 33 34 36 40 41 40 41 41 40 40 41 40 36 35 34 31 31 33 34 36 38 36 37 38 36 38
33 34 32 31 32 33 34 37 38 35 33 33 35 36 39 39 38 38 36 35 34 34 38 39 38 36 32 33 33 32 34 31 36 35 36 36 37 40
29 32 34 35 34 36 37 38 39 38 33 33 33 34 34 36 35 36 35 33 31 31 33 38 39 38 36 35 31 33 33 34 35 35 33 34 38 39
29 31 29 29 29 30 31 33 38 37 34 34 34 36 36 34 34 33 34 31 31 31 33 36 36 34 35 36 36 32 33 33 35 34 34 32 34 38
29 28 27 26 27 28 28 29 31 37 36 34 34 35 36 34 34 33 32 31 30 31 33 35 34 32 28 26 35 36 31 32 32 31 32 32 30 34
29 27 26 25 26 26 26 26 28 30 34 34 35 35 34 34 33 31 31 30 30 31 32 35 35 34 31 28 28 32 32 31 31 29 30 32 35 35
26 26 26 25 24 24 24 24 25 26 29 33 33 33 32 33 32 32 31 31 31 31 31 32 35 30 35 33 27 30 33 31 33 31 31 30 31 33
24 23 23 23 22 22 23 22 22 24 25 28 32 32 32 33 31 31 31 30 31 31 32 35 36 35 33 31 29 30 32 34 33 32 30 28 29 26
21 21 21 21 21 21 21 21 19 21 23 26 28 31 32 31 32 32 31 31 31 31 31 31 33 34 32 32 30 30 31 31 33 33 32 30 30 30

GFSNE_sfc_temp_066.txt.gz
Temp
45 45 45 46 48 49 51 49 43 34 37 43 43 49 48 47 45 43 44 49 47 45 45 46 47 47 46 45 45 45 45 45 45 46 47 48 48 49
44 44 44 45 47 49 49 48 46 43 38 44 44 45 47 52 49 45 45 49 47 45 45 45 46 45 45 44 44 43 43 43 44 44 45 46 46 47
43 43 44 46 48 50 48 47 46 45 40 41 43 45 44 43 46 45 45 43 42 46 45 45 43 43 43 43 43 42 42 42 42 43 44 45 45 45
43 43 45 50 48 48 47 46 43 43 40 39 41 41 42 43 43 42 47 50 43 48 46 45 43 43 42 42 42 41 41 41 41 41 42 42 43 44
45 46 47 49 47 45 47 43 43 48 42 39 40 40 40 41 40 42 42 41 46 49 46 44 44 44 43 43 42 42 42 42 41 40 40 40 41 41
47 47 49 47 45 45 45 43 45 41 41 41 41 40 38 40 40 39 36 38 37 48 46 44 43 44 44 43 42 42 42 42 41 41 40 39 39 39
46 49 48 48 47 46 49 43 41 39 39 38 39 36 35 36 34 34 33 33 35 38 38 36 36 37 37 41 43 43 42 42 41 41 40 39 39 39
43 46 47 47 46 43 44 43 46 43 41 39 38 36 35 34 34 32 31 30 30 36 35 31 34 33 36 37 42 42 41 41 40 40 40 39 39 38
42 43 46 51 45 47 45 41 39 40 37 42 39 37 37 37 36 34 32 30 30 32 32 29 31 29 36 43 41 42 41 41 40 40 39 38 38 38
43 43 42 42 43 40 38 37 39 41 39 38 36 38 39 39 37 37 33 32 31 32 34 27 30 31 32 33 41 42 41 40 39 39 39 38 38 38
43 41 41 39 40 39 36 34 35 37 43 42 40 40 40 39 39 34 27 29 25 28 31 30 30 27 31 30 32 41 40 39 39 39 39 39 39 38
33 37 37 37 36 36 33 32 30 32 34 35 36 38 38 37 35 35 32 29 27 24 31 29 29 28 22 28 30 31 30 37 39 39 39 40 39 35
30 30 32 35 35 35 34 30 30 33 33 33 33 35 37 36 35 33 33 32 29 28 31 28 27 28 24 24 26 29 29 30 30 32 37 39 39 38
29 30 30 33 33 33 32 33 34 33 32 32 32 32 34 34 34 35 34 33 33 32 33 32 26 27 24 22 25 26 26 29 28 28 28 35 36 38
29 30 31 32 32 31 33 34 32 31 30 30 30 32 34 36 36 34 34 34 34 34 37 33 29 30 25 23 24 25 26 27 29 28 30 32 29 32
27 27 27 29 29 30 31 31 31 31 32 31 32 33 35 34 32 32 31 28 28 26 32 33 32 30 27 27 26 26 25 21 28 27 32 27 27 30
24 25 26 26 26 26 27 28 28 29 27 31 32 32 33 33 32 32 32 30 27 25 26 29 32 33 31 29 25 27 28 26 25 31 27 26 29 28
24 22 20 21 21 23 24 24 24 25 26 27 31 32 32 30 30 31 31 29 24 26 27 28 27 28 28 30 33 28 27 27 28 27 27 25 26 27
19 20 17 19 20 22 22 22 21 23 24 25 30 31 31 30 28 29 29 28 28 28 28 28 28 26 21 18 25 34 21 24 24 27 28 29 26 28
23 20 18 19 20 20 20 20 21 21 21 22 24 29 27 29 28 27 28 28 28 28 28 29 27 28 24 19 16 20 33 25 25 25 28 29 27 32
20 19 18 19 18 19 18 19 19 18 19 20 21 24 29 25 26 27 28 27 27 28 26 27 28 29 27 24 13 16 22 34 30 25 23 20 22 23
17 18 18 18 17 17 17 17 17 17 17 18 19 21 22 26 26 25 29 28 26 27 27 27 30 30 26 26 20 15 23 25 31 32 31 29 21 15
14 17 17 16 16 16 16 15 15 15 16 17 17 18 18 18 22 28 30 28 28 26 27 25 27 28 27 28 24 20 21 20 24 24 23 30 30 30

GFSNE_sfc_temp_069.txt.gz
Temp
44 45 45 45 45 45 45 46 44 34 35 41 43 47 44 43 44 43 41 46 46 46 46 47 48 49 49 48 48 47 47 47 46 46 46 47 48 49
45 44 44 44 44 44 45 46 44 41 37 39 41 41 44 49 45 41 42 47 46 45 45 45 46 47 48 47 47 46 46 46 45 45 45 46 47 47
44 44 44 45 44 45 44 45 43 41 37 37 39 41 40 41 43 41 42 41 43 45 44 44 45 45 45 45 45 45 45 45 45 44 44 44 45 45
43 44 44 47 45 43 44 43 40 41 39 36 36 37 39 41 40 40 44 47 43 45 45 45 45 44 44 43 43 43 43 43 43 43 43 43 43 44
44 44 45 45 42 44 45 42 40 45 38 36 40 36 37 38 40 40 42 41 43 47 45 44 44 44 43 43 43 43 43 43 42 42 41 41 41 42
45 46 45 44 45 41 41 40 41 37 38 35 39 37 34 37 36 35 34 36 35 44 45 43 43 44 44 43 43 43 43 43 42 42 41 40 39 40
45 46 46 45 45 43 46 40 37 36 35 37 37 33 31 32 33 35 34 32 34 36 35 35 34 34 35 41 42 43 43 42 42 42 41 40 39 39
41 41 41 43 43 41 40 40 38 37 36 36 37 37 38 32 31 32 34 32 29 32 33 30 32 31 33 34 40 41 41 41 41 41 41 40 39 39
38 38 41 45 39 38 38 37 36 38 33 32 32 34 35 35 33 32 34 33 32 33 31 27 29 28 31 39 41 41 41 41 40 40 40 39 38 38
37 37 35 34 36 35 33 31 32 34 35 37 33 35 35 37 36 38 37 35 34 31 32 23 27 27 29 31 38 41 41 40 40 40 40 39 38 38
35 34 34 32 36 36 31 29 29 30 36 37 38 38 38 38 38 36 33 30 29 27 29 26 27 25 28 28 31 39 40 39 39 40 40 40 39 38
29 32 33 33 34 34 29 28 26 28 29 29 30 32 34 34 36 36 36 31 30 25 27 25 26 25 21 25 29 29 28 35 37 38 39 39 39 33
27 27 27 32 32 33 33 29 28 31 31 30 31 33 34 34 35 34 35 33 30 27 29 26 24 24 23 23 25 29 27 27 27 30 34 37 38 36
27 26 27 31 32 32 31 32 33 31 30 30 29 29 30 31 32 35 35 33 35 32 33 30 23 25 23 21 21 25 23 24 23 25 27 32 35 36
26 28 29 30 30 29 31 31 28 26 25 25 25 28 32 34 35 34 34 33 32 33 34 31 26 28 26 25 21 22 21 25 25 23 26 27 28 28
26 25 24 26 25 25 25 26 25 24 23 23 24 26 29 31 31 33 32 31 30 29 32 31 30 30 25 26 25 24 23 21 24 23 27 25 25 27
21 21 23 22 23 23 23 23 23 23 21 22 22 24 26 31 31 33 32 30 28 26 25 27 30 30 28 28 23 25 25 24 24 24 27 23 25 25
21 16 12 11 15 19 19 19 20 20 21 21 21 22 23 29 31 31 31 29 28 25 25 26 27 25 25 27 32 27 23 22 24 27 25 21 25 28
18 16 10 8 9 18 18 17 16 18 20 18 18 20 22 22 29 30 30 29 27 27 24 25 27 25 20 18 25 34 25 22 21 21 23 27 21 27
20 15 10 8 11 14 16 15 16 16 16 16 16 18 20 20 19 28 29 28 24 25 26 28 27 27 22 20 18 20 32 22 20 18 21 23 25 30
16 15 9 11 12 13 7 8 8 13 13 13 14 15 17 17 17 19 26 25 24 27 26 26 29 28 28 25 16 15 19 31 29 23 22 18 20 24
10 13 12 13 10 9 3 4 10 10 12 12 13 13 15 16 15 16 18 26 26 27 27 28 29 29 27 26 20 12 19 21 28 32 31 29 21 18
4 7 7 4 5 6 12 11 8 7 10 10 12 12 13 13 15 15 16 17 27 27 27 26 28 28 27 28 24 21 20 18 23 23 21 29 31 30

GFSNE_sfc_temp_072.txt.gz
Temp
47 46 46 46 46 46 46 45 42 37 38 38 41 47 43 42 43 42 42 47 46 46 47 48 49 50 50 50 50 49 49 49 48 48 47 47 47 48
46 45 45 45 45 45 44 44 44 42 38 38 39 41 43 46 45 42 40 45 46 45 45 46 47 48 49 49 49 49 48 48 48 47 47 46 47 47
45 45 45 45 44 43 44 44 43 39 36 38 37 40 38 40 43 41 40 39 41 45 44 45 45 45 46 46 47 47 47 47 47 47 47 46 46 46
44 44 44 46 44 43 42 41 38 38 36 37 36 36 37 40 39 39 44 45 42 45 45 45 44 44 44 44 45 45 45 45 45 45 45 45 45 45
45 44 44 44 43 42 40 40 43 45 42 38 40 36 35 36 36 37 39 40 44 46 45 44 44 45 45 44 44 44 44 43 42 42 42 42 43 43
45 45 45 45 43 42 42 42 40 36 36 35 37 36 33 36 38 38 37 35 39 43 45 43 42 44 44 44 43 43 43 43 42 42 41 40 40 41
45 46 45 44 44 42 42 36 35 35 34 32 33 34 32 29 30 34 32 33 32 34 34 35 38 39 36 42 41 43 43 43 42 42 41 40 40 40
42 42 39 39 38 38 38 38 36 31 29 28 29 30 32 33 31 34 32 33 32 32 34 36 36 34 35 33 39 40 41 41 41 41 41 40 40 39
35 35 38 39 35 34 34 34 34 35 31 29 28 28 29 31 33 33 33 32 33 34 33 29 31 31 33 37 40 40 41 41 40 40 40 39 39 38
33 33 31 31 32 32 30 28 28 29 30 31 28 30 31 33 32 34 32 33 34 35 34 30 28 31 30 30 38 40 40 40 40 40 39 39 38 38
32 32 31 30 33 34 29 27 27 28 34 35 35 35 35 35 35 32 29 27 27 33 29 31 29 27 27 28 29 38 40 39 38 38 38 39 39 38
29 30 32 30 32 32 27 26 25 27 29 31 33 34 35 33 34 31 31 28 28 29 30 29 29 27 21 24 27 28 28 34 36 37 38 38 38 32
27 26 26 30 31 32 32 27 28 29 28 27 29 28 29 30 31 32 34 31 29 30 32 32 27 26 22 23 24 27 27 26 26 28 34 35 36 35
26 26 25 30 31 31 29 31 30 27 24 23 24 26 25 26 28 32 34 33 33 32 35 31 27 27 24 21 22 24 23 23 22 24 25 31 35 35
27 27 29 29 29 28 29 29 25 23 21 20 21 22 23 25 28 30 33 34 33 34 34 32 29 27 26 23 21 22 21 26 24 22 23 24 27 28
26 26 24 25 24 24 24 25 24 22 20 20 19 21 23 24 24 29 31 31 30 31 31 31 30 29 24 25 26 23 24 21 23 24 24 27 27 25
23 22 23 22 21 22 22 21 21 20 18 18 18 17 19 21 22 24 25 31 29 27 27 29 30 29 28 28 22 25 26 23 21 23 25 24 25 26
23 19 16 12 15 18 17 17 18 17 18 18 16 16 16 17 20 21 23 30 27 28 27 28 28 27 27 26 31 26 22 20 22 25 26 21 23 26
18 16 10 9 11 17 16 16 14 15 16 15 14 13 14 16 17 17 18 27 27 26 25 27 28 26 22 15 26 33 24 22 22 20 22 21 19 24
20 17 14 13 14 15 15 13 13 11 10 12 12 11 12 13 14 16 17 16 24 28 26 27 27 27 24 18 19 21 32 24 23 17 18 22 24 29
17 16 14 14 13 13 6 4 1 1 4 6 6 8 9 10 11 15 15 15 16 26 26 26 27 29 27 24 17 16 19 31 27 22 21 17 18 21
14 14 14 12 6 7 1 -1 3 2 4 6 4 7 4 8 9 12 13 12 14 16 25 25 28 27 25 26 21 14 18 20 27 32 30 28 19 15
9 12 8 3 3 2 7 1 3 -1 4 8 8 8 5 6 9 12 12 12 14 17 21 26 27 27 27 28 24 20 19 17 21 22 20 29 31 31

GFSNE_sfc_temp_075.txt.gz
Temp
49 49 49 47 47 47 47 46 44 39 39 44 43 43 43 42 43 41 41 45 47 46 47 49 50 51 51 52 52 52 51 51 51 50 50 49 49 49
48 47 46 46 46 46 45 45 44 42 38 43 43 42 41 45 44 42 40 46 46 45 45 46 47 49 50 50 50 50 50 50 50 50 49 49 49 49
46 46 45 46 45 44 44 44 43 42 38 41 38 38 37 38 41 40 41 38 39 45 45 45 45 46 47 47 48 48 49 49 49 49 49 49 48 49
45 45 45 46 44 43 43 42 41 40 37 32 35 36 35 38 38 37 43 44 39 43 44 44 44 44 44 45 45 45 46 46 47 47 47 47 47 47
45 45 44 44 43 42 42 41 41 43 40 37 39 38 34 34 35 36 36 37 41 46 44 43 44 44 44 44 44 44 45 45 44 44 43 43 44 44
45 45 45 44 43 42 42 41 41 38 36 32 31 32 32 33 32 32 35 34 35 42 44 44 44 44 44 44 44 44 43 44 43 42 41 40 40 41
44 45 45 43 41 41 42 36 34 30 29 28 28 28 28 28 29 30 31 33 34 32 35 36 38 36 36 42 43 43 44 43 42 42 41 41 40 40
42 41 39 39 38 37 37 37 34 29 27 25 25 25 25 26 28 27 29 29 29 33 32 33 34 35 34 36 38 40 41 42 42 42 41 40 40 40
38 38 39 37 34 32 34 33 33 34 29 27 24 24 24 26 27 27 27 28 28 32 32 31 29 31 34 38 39 39 41 41 41 41 40 40 39 38
35 34 33 30 32 31 29 27 28 28 29 30 26 25 26 28 28 30 29 29 30 30 31 26 32 31 34 31 39 38 40 40 40 40 40 39 38 38
32 31 30 29 33 33 29 27 26 28 33 34 34 35 35 35 34 31 29 27 26 28 29 29 32 29 26 29 31 35 39 39 39 39 39 38 38 38
30 30 31 30 31 32 28 26 25 26 26 27 27 29 31 31 32 31 29 26 27 26 30 25 29 29 28 26 29 29 31 38 38 38 38 38 38 31
27 26 27 30 31 32 31 28 27 26 26 24 24 24 26 28 29 29 28 28 27 28 33 28 29 28 27 26 28 29 28 27 27 29 35 36 36 34
28 27 27 30 31 31 28 29 28 25 22 21 20 22 22 22 24 25 27 28 29 29 33 32 29 27 27 24 25 27 24 22 22 23 24 30 33 35
28 28 29 29 29 28 28 27 25 22 19 17 18 19 20 22 23 24 26 27 29 32 33 32 31 30 29 25 24 22 23 24 23 22 22 24 24 27
26 27 25 26 25 25 25 24 23 21 19 18 17 18 20 20 19 21 21 22 21 26 33 32 32 30 27 27 27 25 24 20 21 22 23 23 24 26
24 24 23 22 21 22 21 21 21 20 18 17 16 16 16 16 16 19 19 20 18 24 28 30 31 31 30 29 25 24 23 22 20 22 24 24 24 26
23 19 16 15 16 18 18 17 18 17 17 16 14 15 13 12 13 15 17 17 17 20 28 28 28 27 27 28 31 24 21 19 22 25 26 25 23 24
18 16 11 10 13 17 16 16 14 15 16 13 11 11 11 11 11 12 13 15 16 18 20 28 27 27 23 19 22 32 20 21 20 22 23 21 19 23
20 16 15 15 15 15 14 14 13 12 10 10 8 7 4 9 8 9 11 11 14 15 17 27 27 27 23 19 16 21 32 23 22 19 17 20 24 29
17 16 15 15 14 13 11 8 3 4 2 -4 -0 2 0 7 6 7 8 11 12 15 15 17 26 29 27 25 16 18 19 31 28 23 21 18 18 19
15 15 15 14 11 10 5 2 1 -4 -2 -2 -1 -4 -2 -0 4 5 7 8 10 13 15 18 21 28 25 24 20 15 18 19 27 31 30 28 20 14
11 12 11 8 8 7 9 4 0 -5 0 1 5 5 2 2 5 7 7 6 9 11 14 15 18 27 25 26 23 21 19 17 21 22 22 29 31 31

GFSNE_sfc_temp_078.txt.gz
Temp
53 52 50 50 49 48 48 48 46 40 40 45 45 46 45 46 46 45 44 46 46 47 47 48 50 52 53 53 53 54 54 54 54 53 53 52 51 51
52 51 50 48 48 47 48 47 46 44 40 44 44 44 46 46 46 45 43 46 46 45 45 46 47 48 50 51 51 52 52 52 53 52 52 52 51 51
50 50 49 48 46 45 45 45 44 43 39 42 43 42 41 42 43 43 43 42 43 44 44 44 45 45 46 47 48 49 50 50 50 50 49 49 51 51
48 48 46 47 44 45 44 43 42 42 40 37 39 39 38 40 40 39 42 44 42 44 44 44 45 44 44 44 45 46 46 47 48 48 47 47 49 50
48 47 46 45 43 43 43 42 41 43 40 38 39 40 39 37 37 38 38 39 42 45 44 43 43 44 44 44 44 44 45 45 44 44 44 44 45 47
48 47 46 45 43 43 43 41 41 39 37 36 35 35 34 35 34 33 34 36 36 41 42 42 42 43 44 44 44 44 44 44 44 42 42 41 41 42
45 45 44 43 41 41 42 37 36 35 34 32 30 30 30 30 30 31 30 32 33 35 36 37 37 39 40 41 43 44 43 43 43 42 42 41 40 40
40 38 38 37 37 37 37 36 35 33 31 28 28 28 27 28 29 28 28 28 27 34 32 33 36 35 38 38 40 41 42 41 41 42 42 41 40 40
37 37 37 36 35 34 34 34 34 34 30 29 27 27 26 28 28 27 27 27 27 32 32 28 34 32 36 38 39 39 40 40 41 41 41 40 39 39
35 35 34 33 33 33 32 31 30 31 31 32 29 29 29 29 29 32 30 30 31 33 33 26 33 31 34 36 38 39 38 39 37 40 40 39 39 38
33 34 33 32 33 33 30 29 29 30 33 33 33 33 33 33 34 31 27 26 25 29 34 30 31 30 33 33 34 37 39 38 36 40 39 39 39 38
32 32 32 31 32 32 29 28 26 27 27 28 28 28 29 30 30 30 28 25 25 25 32 28 31 30 29 32 31 32 34 35 37 39 39 39 38 38
29 28 28 31 32 32 30 28 27 27 26 25 25 26 27 27 27 28 27 25 23 23 30 29 30 31 29 30 30 31 32 31 34 36 37 37 37 37
28 28 28 31 31 30 29 29 27 25 24 22 21 22 22 23 24 25 25 26 28 26 29 29 26 29 29 27 27 30 30 31 31 31 32 33 34 35
28 28 29 29 30 28 28 27 25 23 21 18 18 19 21 22 23 23 24 25 26 26 29 28 28 30 30 29 28 28 28 30 29 31 30 31 32 33
26 27 26 26 25 25 25 25 23 22 20 19 18 19 21 20 19 20 18 20 19 21 27 29 30 32 30 30 29 27 29 28 29 29 30 30 31 31
24 24 23 22 22 22 22 22 21 20 18 18 17 16 16 17 15 17 16 17 15 17 19 24 30 33 32 31 27 29 28 27 28 29 29 29 31 31
23 20 17 16 17 19 18 18 19 18 18 17 16 14 13 13 12 14 14 13 13 15 17 21 21 28 28 29 32 28 27 28 29 29 29 28 28 31
20 18 15 14 15 18 17 16 15 16 16 15 13 12 11 12 10 11 10 11 11 14 16 19 20 24 24 23 28 33 28 26 27 27 28 27 27 30
21 17 16 16 16 16 15 14 14 13 12 12 10 9 7 8 8 8 8 7 8 12 13 18 19 21 23 25 25 27 32 28 27 27 26 27 28 29
18 17 16 16 15 14 13 11 9 8 8 6 4 4 2 5 6 7 7 6 7 10 10 13 17 20 22 26 24 24 27 31 30 28 26 25 26 26
15 15 15 14 12 11 9 6 5 6 6 5 3 0 1 2 4 4 4 5 7 8 9 15 18 19 19 25 24 21 25 26 29 31 30 30 27 23
10 11 10 10 9 8 9 7 4 1 3 3 3 4 -0 1 4 5 6 7 7 7 8 11 16 17 17 26 25 24 22 23 26 26 26 29 30 31

GFSNE_sfc_temp_081.txt.gz
Temp
60 60 56 57 55 54 53 52 50 44 48 50 51 54 56 54 55 56 56 50 47 47 47 48 50 52 52 53 54 54 55 56 56 56 56 55 54 54
58 57 56 54 53 51 50 49 52 52 47 54 55 54 51 54 55 55 54 47 48 45 45 46 47 48 49 50 51 52 53 54 54 54 55 54 54 53
54 52 52 54 50 48 49 47 49 50 48 49 54 48 47 51 54 55 54 54 54 46 44 45 45 45 46 46 47 48 49 50 51 52 53 54 53 52
52 51 52 49 47 46 46 45 47 49 45 44 43 43 44 48 50 50 52 53 53 49 45 44 44 44 44 44 44 45 45 46 47 48 49 50 51 50
53 51 50 47 45 45 45 47 44 44 43 41 41 44 45 48 48 48 48 50 50 47 44 43 43 44 44 44 44 44 44 45 44 44 45 46 47 47
50 50 49 47 45 45 44 43 45 43 42 41 41 40 42 47 46 44 44 45 44 47 45 43 42 42 42 42 42 42 43 43 44 43 43 42 41 43
46 46 46 46 44 43 45 42 42 38 37 37 36 41 41 44 43 44 39 41 42 43 43 44 44 44 44 43 43 43 42 41 42 43 43 41 40 40
40 40 39 38 37 37 37 37 38 37 37 36 39 38 40 41 41 39 38 37 36 44 40 39 42 41 43 45 42 40 39 40 40 42 42 40 40 39
38 37 37 36 37 35 34 34 35 34 32 37 37 38 38 39 38 36 36 36 36 41 39 36 42 40 44 45 41 39 39 39 39 40 40 39 40 39
36 35 34 34 34 34 34 33 34 34 35 36 37 39 38 38 37 38 37 37 38 40 41 33 41 40 43 44 41 40 39 39 39 39 39 39 39 39
34 35 34 34 32 35 34 33 33 33 34 33 33 32 32 32 33 36 34 33 31 36 39 36 38 38 40 41 44 41 38 38 38 39 38 38 39 39
32 32 32 34 32 32 33 33 32 33 33 34 34 34 33 33 30 34 32 29 30 31 40 34 37 36 32 41 43 44 43 39 36 37 36 38 39 44
31 30 32 32 33 32 32 34 31 32 30 30 30 31 32 31 31 32 32 30 29 30 36 33 32 32 31 32 38 41 41 40 37 38 38 39 38 40
30 30 32 32 32 30 31 29 27 28 29 28 27 27 27 27 29 30 30 30 32 30 32 31 27 29 28 27 31 39 41 40 39 37 39 39 37 37
32 31 31 31 30 29 28 27 26 28 26 24 24 25 27 28 28 27 28 29 29 29 30 29 28 29 28 26 29 34 34 38 38 38 38 39 39 40
29 30 29 29 29 28 29 28 28 27 25 24 24 25 26 25 24 25 23 24 23 25 30 30 30 29 27 31 32 33 35 32 38 38 38 39 40 40
29 29 29 29 28 28 27 26 27 26 24 24 23 23 22 22 22 23 21 21 19 20 23 28 30 30 30 29 31 34 34 34 37 37 36 35 38 39
29 27 25 24 24 24 24 24 24 22 23 22 21 21 19 18 19 20 20 19 18 19 21 24 25 25 29 33 35 33 34 34 36 36 36 34 36 39
26 25 23 23 22 23 23 22 21 21 20 19 18 18 17 17 16 17 17 18 17 18 20 23 23 22 21 22 34 34 32 34 34 34 36 35 34 38
25 23 22 21 21 21 20 20 19 19 18 17 17 16 14 14 14 15 16 14 15 17 17 21 22 23 19 18 19 28 32 33 33 33 34 36 37 30
21 21 21 21 20 19 18 17 16 15 14 14 14 13 13 13 13 14 14 12 12 14 16 17 21 21 22 21 21 25 31 33 35 35 35 33 32 33
18 18 18 18 16 16 15 15 14 14 13 13 12 12 12 12 11 11 12 12 13 14 15 18 21 22 22 18 20 25 29 32 32 32 33 33 32 29
14 15 14 14 14 14 13 12 11 11 11 11 11 11 11 10 11 12 12 13 13 13 14 14 18 20 20 18 19 22 29 30 33 32 32 29 30 31

GFSNE_sfc_temp_084.txt.gz
Temp
69 68 67 68 66 66 62 58 51 45 49 50 51 59 60 61 60 62 64 51 48 47 47 48 50 51 52 53 53 54 55 56 56 57 57 57 58 58
68 66 64 64 62 59 56 55 53 52 49 55 52 58 62 64 57 61 60 52 48 46 46 46 47 48 49 49 50 51 51 52 53 54 55 55 56 57
66 62 62 60 54 53 55 52 51 51 50 50 54 56 57 60 59 53 58 59 61 47 45 45 45 45 46 46 46 47 48 48 49 50 51 52 54 55
59 57 55 54 53 53 52 50 49 51 49 46 46 46 48 51 50 53 55 61 60 51 47 45 44 44 44 44 44 44 44 45 45 46 47 48 49 51
61 56 55 52 51 52 51 50 49 48 46 43 41 44 45 47 47 51 52 57 58 51 45 44 44 44 44 44 43 43 43 43 43 43 43 44 45 46
58 56 54 51 50 48 46 48 45 44 42 42 41 41 41 46 47 48 51 55 54 56 50 46 44 45 43 43 42 42 43 43 42 42 41 40 41 43
53 51 49 48 45 46 47 45 44 40 40 38 36 36 38 40 42 51 50 50 51 52 51 51 51 50 49 45 45 44 43 41 41 40 40 40 41 42
42 41 40 40 38 37 37 37 40 39 36 36 36 34 38 43 48 48 47 45 43 53 47 46 48 46 48 50 45 42 41 41 40 40 40 40 40 41
38 38 37 36 36 35 35 35 34 34 33 37 36 39 42 46 47 45 44 44 43 47 46 42 47 45 49 51 43 41 41 41 40 40 39 39 39 39
37 36 35 34 34 35 34 34 34 35 35 36 39 41 43 45 44 44 43 42 43 44 45 38 45 44 47 49 44 42 41 41 40 39 39 39 38 38
34 34 34 33 33 36 35 33 33 34 34 33 33 33 33 32 33 38 36 37 35 40 45 40 41 42 45 44 46 43 41 40 39 38 38 38 39 37
32 32 34 33 32 34 35 36 36 39 39 39 39 36 34 37 31 35 38 33 34 34 44 37 39 39 36 44 45 44 46 41 39 38 38 38 38 40
32 32 32 32 33 33 35 37 36 38 32 36 37 39 39 39 39 39 38 35 32 33 40 37 35 36 35 36 41 43 43 44 43 43 39 37 37 38
32 33 33 33 32 32 33 28 28 30 35 34 34 34 34 34 35 36 36 35 36 33 36 34 30 32 32 31 32 39 41 43 43 40 40 37 37 38
34 33 32 32 30 30 28 27 27 33 31 30 30 31 32 33 33 32 34 34 33 33 33 32 30 30 31 30 31 33 34 38 41 40 39 38 39 40
31 33 32 32 30 31 31 31 34 32 29 28 29 31 32 31 30 31 29 29 28 28 32 32 31 30 29 31 33 32 35 34 40 40 40 38 39 41
33 34 35 35 34 34 33 31 32 31 28 28 26 26 26 27 26 28 27 27 24 26 28 31 33 33 32 31 29 32 34 36 37 40 38 37 39 41
33 31 29 29 29 29 28 28 28 27 27 25 24 24 23 23 24 25 25 24 23 25 26 28 28 28 30 33 35 34 35 35 38 39 37 35 36 39
30 28 26 26 26 27 26 25 24 25 24 23 23 22 22 21 21 21 22 23 22 24 25 27 26 24 22 21 32 33 26 31 35 35 36 36 36 38
28 26 25 25 25 24 24 23 23 22 21 21 19 19 18 18 17 18 20 19 20 21 22 24 25 25 22 20 20 26 29 26 30 33 35 38 38 30
25 25 24 23 22 22 21 20 19 19 18 18 18 17 17 17 16 17 18 16 16 18 19 21 24 24 25 25 20 24 30 31 30 35 36 35 34 35
21 22 22 21 20 20 19 18 18 17 17 16 16 15 16 16 15 15 15 14 16 17 18 21 24 24 23 22 20 22 24 27 32 32 32 33 35 30
19 19 19 19 19 18 18 17 16 15 15 15 15 15 14 13 14 15 15 15 15 16 17 17 20 22 21 21 21 21 20 22 30 31 34 30 32 32

GFSNE_sfc_temp_087.txt.gz
Temp
69 69 69 71 70 69 66 64 57 51 51 55 51 54 54 55 57 57 58 53 49 48 49 50 51 52 52 52 53 54 55 55 56 56 57 57 57 58
70 69 68 69 69 66 65 62 57 53 49 54 53 54 54 57 58 59 61 54 48 47 47 47 47 49 50 50 50 51 51 52 52 53 53 54 55 55
69 68 68 69 65 65 59 57 55 53 50 53 55 54 52 54 53 55 56 56 59 48 47 46 45 45 46 46 46 47 48 48 49 49 50 51 52 52
69 68 66 65 63 59 56 54 52 53 52 51 52 49 49 50 48 49 53 57 55 53 47 46 45 45 44 44 44 44 45 45 45 46 46 47 48 49
69 68 65 61 58 56 53 52 51 51 50 46 42 43 43 44 44 46 47 48 55 51 46 45 44 45 45 44 44 44 43 43 43 42 42 43 43 44
67 63 62 59 57 56 51 50 47 45 43 43 41 40 40 43 43 42 42 46 49 56 54 48 47 46 45 44 43 43 43 43 43 42 41 40 40 41
62 58 54 52 47 48 48 46 45 43 42 39 37 37 36 37 38 40 39 42 48 54 52 53 53 52 50 45 44 44 43 43 42 42 41 40 40 40
45 41 40 41 38 38 38 38 42 40 37 36 36 35 36 38 39 38 39 42 42 54 51 49 51 49 49 50 47 44 42 42 42 41 41 40 40 39
39 38 37 37 37 36 35 35 34 35 33 37 35 35 35 38 40 41 43 44 43 48 46 43 47 45 49 51 45 44 42 42 41 41 40 40 39 38
36 36 35 34 34 35 34 33 34 34 34 36 36 38 39 41 43 44 43 42 43 45 45 36 43 42 46 47 45 44 42 41 41 41 40 39 38 38
34 34 34 33 33 36 34 31 31 32 34 35 35 34 34 34 34 36 34 35 34 39 45 40 42 40 41 43 45 44 43 42 41 40 40 39 38 38
32 31 32 32 32 35 34 34 33 34 37 39 39 36 34 37 33 34 35 33 34 34 41 34 37 38 33 40 42 44 43 42 40 40 40 40 39 40
30 30 31 32 34 34 34 33 30 38 35 37 38 39 41 41 41 40 40 36 32 32 38 35 33 34 33 33 37 40 41 40 41 42 42 40 38 38
31 32 32 33 33 33 31 29 30 32 35 34 34 35 36 36 37 37 37 36 37 34 36 34 30 30 29 29 29 36 38 39 39 39 41 41 38 38
33 33 32 32 30 30 29 29 29 34 32 31 31 32 34 36 36 34 35 35 34 34 35 34 32 31 30 27 27 31 31 36 38 37 39 39 38 38
31 32 31 31 29 31 31 32 34 32 30 29 29 30 32 31 30 31 28 28 28 29 33 34 33 31 28 29 30 29 33 30 36 37 38 37 39 39
33 34 34 34 33 33 33 32 32 31 29 28 26 26 27 27 27 28 27 26 24 25 27 31 33 33 32 30 27 29 30 31 34 35 36 33 37 39
33 31 29 29 28 29 28 28 28 27 26 26 25 25 24 23 23 24 24 23 22 23 24 27 27 26 27 30 33 29 31 31 33 31 30 32 35 37
30 28 27 26 27 28 27 26 24 25 25 24 23 22 21 21 20 20 20 20 20 21 22 24 24 22 19 17 28 33 26 26 26 26 25 33 34 36
28 26 25 25 25 25 25 24 24 23 22 22 20 20 19 18 17 17 18 17 17 18 19 22 22 22 17 16 18 24 29 25 25 24 25 34 34 31
25 25 25 24 24 23 22 21 21 20 19 19 19 18 17 17 16 16 17 16 16 17 16 18 22 23 24 24 19 21 27 31 30 25 25 25 31 32
22 23 23 23 21 21 20 20 19 19 18 18 17 16 16 16 15 15 15 15 15 16 17 20 22 22 21 19 17 19 23 27 30 27 27 30 33 28
20 20 20 20 20 20 20 18 17 16 16 16 16 16 15 14 15 15 15 16 16 15 16 17 19 20 19 19 18 19 20 22 23 22 28 31 31 31

GFSNE_sfc_temp_093.txt.gz
Temp
60 59 57 57 57 57 56 55 53 49 49 51 53 55 58 56 56 55 55 51 49 49 49 51 53 54 54 55 55 56 57 57 57 57 57 58 58 58
60 58 58 58 57 57 56 56 56 56 53 55 55 54 53 55 54 54 54 53 49 48 48 48 49 51 51 52 52 53 53 54 54 55 55 55 56 56
58 57 59 57 58 57 57 58 57 56 54 56 54 52 52 51 53 53 53 53 54 48 47 47 47 47 48 48 48 49 50 50 50 51 52 53 53 53
58 56 58 58 57 58 57 58 57 57 55 53 52 51 50 49 51 50 51 54 52 48 46 46 46 45 45 45 46 46 46 46 46 47 48 48 49 50
59 57 59 57 58 58 56 57 56 55 55 54 54 45 44 44 44 45 46 47 50 48 46 44 44 45 45 44 45 45 45 45 44 44 44 44 45 46
59 58 59 58 58 57 55 55 55 53 53 52 45 41 41 42 42 41 41 43 43 49 47 45 44 44 45 44 44 44 44 44 44 43 42 41 40 42
58 53 46 44 42 45 51 52 51 49 45 43 39 37 36 37 37 38 37 37 39 41 42 42 43 44 44 44 45 45 44 44 43 43 42 41 40 41
47 41 40 40 38 38 38 37 41 43 39 37 35 34 35 35 36 35 34 33 33 40 37 37 40 38 41 43 44 43 43 43 43 43 42 42 41 40
43 39 38 38 37 37 36 35 35 35 34 37 34 33 33 33 33 33 32 32 33 37 37 33 37 37 41 45 43 43 43 42 42 42 42 41 40 39
38 37 35 35 35 35 34 33 33 33 34 34 33 32 33 33 35 35 34 33 34 36 37 25 30 29 32 35 39 41 41 40 40 40 40 40 39 39
35 35 34 33 35 37 33 31 31 31 34 35 35 35 36 35 35 31 29 28 26 30 31 28 26 27 28 28 32 37 37 37 37 37 38 39 39 39
32 32 33 33 33 34 33 31 29 31 32 33 33 35 35 34 32 30 28 26 25 22 27 25 26 25 21 27 28 31 30 34 35 35 36 36 37 36
30 30 30 31 32 32 32 30 29 31 31 31 31 31 30 30 30 30 29 26 24 23 27 23 23 22 21 23 26 26 27 28 28 30 33 34 35 35
29 29 29 31 31 31 31 31 30 30 29 28 27 26 26 26 27 27 28 27 27 26 27 26 21 23 22 21 21 26 27 27 25 26 27 31 33 34
30 30 30 30 30 30 30 29 28 27 26 24 23 23 24 26 27 26 26 26 26 26 29 26 24 24 23 20 20 21 22 25 26 24 26 26 27 29
30 30 28 28 28 28 28 29 28 26 24 23 22 24 25 24 22 23 20 21 20 20 25 26 25 22 19 20 20 19 22 19 23 23 23 23 26 26
28 28 28 27 26 26 25 25 25 24 22 22 21 20 20 20 19 21 19 18 15 16 17 21 23 22 21 21 16 19 19 19 20 21 22 21 23 25
27 24 23 23 22 22 21 21 21 21 21 20 18 18 16 15 16 17 17 15 13 14 14 16 16 16 18 20 24 18 17 16 19 21 21 19 20 24
23 21 20 20 19 20 19 18 16 17 19 16 15 12 14 14 13 13 13 12 12 12 13 15 14 13 9 6 16 24 16 17 17 17 19 19 18 21
21 19 17 17 17 17 17 16 15 14 13 14 11 9 6 11 10 10 10 2 9 11 12 15 13 13 10 8 10 15 24 17 16 15 16 19 21 26
18 16 16 16 16 15 13 12 9 9 7 4 6 5 -4 5 3 7 7 6 6 11 10 11 14 17 17 17 10 11 15 23 22 17 17 16 17 20
15 15 15 14 13 12 8 5 6 4 3 3 -5 -7 -8 -1 -1 1 2 5 8 9 10 13 15 16 13 12 9 9 12 16 21 23 25 23 17 15
10 12 10 9 9 8 8 3 1 -9 1 2 -1 1 -10 -1 4 4 3 7 8 8 10 9 11 12 12 12 10 10 11 13 15 16 19 25 25 26

GFSNE_sfc_temp_096.txt.gz
Temp
58 58 57 58 56 56 55 54 52 47 48 51 53 57 56 55 57 56 57 54 51 50 50 51 53 55 56 56 56 58 59 59 59 59 59 59 59 59
58 57 57 56 56 56 56 54 53 54 51 53 54 55 54 55 57 55 56 53 50 49 49 49 50 52 53 53 54 54 55 55 56 56 56 56 56 57
57 57 58 58 57 56 55 55 55 54 53 56 53 53 52 52 53 53 54 53 53 47 47 47 47 47 48 49 49 50 51 51 51 52 52 53 54 54
58 57 57 57 55 57 57 56 55 56 55 53 53 50 49 50 49 50 51 53 52 49 46 45 45 44 44 44 45 46 46 47 47 48 48 49 50 50
59 57 58 56 56 57 56 56 56 56 54 55 55 47 44 44 44 45 45 46 48 48 44 44 44 44 44 44 44 44 44 44 44 44 44 45 46 47
59 58 58 57 57 57 56 57 57 55 54 54 52 42 42 42 42 42 41 42 42 46 44 42 43 43 43 43 43 43 43 44 44 43 43 42 41 43
57 56 55 50 43 46 54 56 54 53 53 46 40 38 37 37 37 38 36 37 39 40 41 41 41 41 40 41 42 42 42 43 43 43 43 42 41 41
55 43 41 40 38 38 39 38 39 46 43 39 37 35 35 35 35 34 34 34 34 39 37 36 39 38 40 41 42 42 42 42 43 42 42 41 41 41
49 42 39 38 37 37 36 36 35 35 34 38 35 33 32 33 34 33 32 32 32 35 34 30 35 34 37 40 39 40 39 38 38 38 38 38 37 38
41 40 38 37 36 36 35 33 33 33 34 34 34 32 32 34 35 35 32 32 32 32 30 24 27 27 31 33 37 38 37 37 36 36 36 36 37 37
35 36 35 35 35 37 33 30 30 30 34 35 35 36 35 35 34 31 29 28 26 29 28 24 25 25 26 27 29 35 35 35 35 35 35 35 35 35
32 32 33 33 32 33 32 31 29 29 31 31 30 31 32 32 31 29 28 25 25 24 25 23 24 23 19 25 27 27 28 32 33 33 34 34 34 31
31 30 31 32 32 32 32 30 29 30 29 28 27 28 29 29 28 28 28 26 23 23 26 23 23 21 20 22 24 26 25 26 26 27 30 32 32 32
28 29 31 32 32 31 30 30 30 29 28 26 24 24 25 25 26 26 26 25 26 25 26 23 16 20 19 17 18 24 23 24 25 25 26 28 28 28
30 31 31 31 30 28 29 29 27 26 24 22 22 22 23 25 25 24 25 25 25 25 26 24 21 21 18 15 15 17 18 22 23 21 22 22 21 23
29 28 28 28 27 27 25 25 24 24 23 22 21 22 23 22 19 21 18 19 18 18 23 23 22 20 15 17 18 16 19 15 19 20 20 20 22 23
28 28 26 25 24 23 22 23 23 23 20 20 19 18 18 18 17 18 17 16 13 13 14 18 21 21 20 20 15 17 16 16 17 18 18 17 20 21
26 23 22 21 21 21 19 19 19 19 19 18 17 16 15 14 15 15 15 11 10 12 12 14 15 14 16 18 21 16 16 15 17 19 19 15 16 20
20 19 18 18 18 18 18 17 15 17 17 15 14 13 13 13 12 12 11 11 9 10 11 14 13 11 6 3 14 22 14 15 15 14 16 16 14 17
19 17 16 16 16 16 16 15 14 14 13 12 9 8 6 9 8 8 8 1 7 9 11 13 11 11 8 7 8 12 21 15 14 13 13 17 19 23
16 15 15 14 13 13 11 9 4 3 3 2 4 4 -5 3 1 5 5 4 4 9 8 8 11 15 15 13 7 8 13 20 20 16 15 14 14 16
13 13 12 12 10 9 6 3 4 4 1 3 -9 -10 -13 -4 -2 -0 -2 -1 5 6 8 10 13 12 10 9 7 7 10 14 18 21 23 22 16 13
9 9 8 7 5 2 5 1 -0 -7 -2 -2 -2 -2 -14 -5 -0 -1 -2 2 5 5 6 6 8 10 9 10 9 8 8 9 13 14 16 23 24 25

GFSNE_sfc_temp_099.txt.gz
Temp
57 56 56 56 56 57 56 55 53 48 48 52 52 55 55 55 57 55 55 55 50 49 49 51 53 55 55 56 57 58 60 60 59 59 60 60 60 60
57 57 55 56 55 56 55 54 53 52 50 52 53 55 55 54 54 55 55 53 50 48 48 48 49 51 52 53 54 55 56 56 56 56 56 56 56 57
56 56 56 57 55 54 55 56 55 53 51 55 53 53 52 53 53 53 52 52 51 48 47 46 46 46 47 48 48 50 51 51 52 51 51 52 52 53
57 55 56 57 56 57 55 54 54 54 54 53 54 50 50 48 48 49 49 51 51 47 46 45 45 45 44 45 45 45 46 46 46 46 46 47 49 50
59 57 57 57 57 57 55 55 54 54 53 54 54 47 45 45 45 45 46 46 48 47 43 43 44 44 44 43 43 44 44 44 43 43 42 43 43 44
60 59 58 58 57 57 55 54 54 53 52 53 53 53 44 42 43 43 41 42 42 46 43 42 43 42 42 42 42 42 42 42 42 41 41 40 40 42
55 57 57 55 49 50 54 54 53 53 53 53 53 41 39 38 39 39 37 37 38 39 40 40 40 40 40 41 41 42 42 42 42 41 40 39 38 39
54 53 45 42 40 39 40 40 46 53 53 51 45 38 36 35 35 36 35 34 33 37 37 36 39 36 38 37 39 40 39 39 38 38 37 37 37 37
55 50 42 40 38 37 36 36 35 35 33 41 37 34 33 33 34 33 32 32 32 31 33 31 31 31 34 38 38 38 37 37 36 36 36 36 36 36
49 48 44 38 37 37 34 32 31 32 32 33 31 30 30 31 31 32 31 31 30 30 30 27 28 27 30 32 36 36 35 35 35 35 35 35 35 35
37 38 38 36 36 37 33 30 29 30 33 33 33 32 32 31 31 31 27 27 26 25 27 26 25 25 27 27 30 33 33 33 32 32 33 33 33 33
33 33 35 34 33 33 32 31 29 28 28 28 27 28 28 28 28 27 27 24 24 24 24 23 24 23 19 25 26 26 26 29 30 30 31 32 32 29
31 31 32 33 33 33 32 30 28 29 27 26 26 25 25 25 25 25 26 25 23 22 25 23 22 21 21 21 23 24 23 23 23 25 28 28 30 29
30 31 31 33 32 32 31 30 30 27 26 24 23 22 22 21 23 24 24 25 27 24 25 24 19 19 17 15 15 21 21 22 22 21 21 24 26 26
30 31 31 31 30 28 28 27 26 24 23 21 20 20 21 22 23 22 23 24 24 25 25 23 20 20 17 14 13 15 16 20 22 19 20 20 19 21
29 27 26 25 24 24 23 24 23 23 21 20 19 20 21 19 19 20 18 18 17 17 22 22 21 19 13 16 17 15 17 13 18 18 19 19 20 21
27 25 24 22 21 21 21 21 22 21 19 19 18 17 17 17 16 17 16 15 12 13 13 17 20 20 19 18 13 15 15 15 17 17 17 16 18 19
24 22 20 20 19 19 18 18 19 18 18 17 16 16 15 14 14 14 13 12 9 10 11 13 13 13 14 17 20 14 14 13 15 16 17 13 14 18
19 18 17 17 17 17 17 16 15 16 17 15 13 13 13 12 11 10 9 9 8 10 10 12 11 9 5 1 12 21 12 12 13 12 14 14 12 15
18 17 16 16 16 15 15 14 14 13 12 11 8 6 6 8 7 7 8 1 5 8 9 12 9 9 6 4 5 10 19 13 12 11 12 15 17 22
15 14 13 13 12 12 10 8 7 5 4 2 3 3 -5 3 2 4 3 1 3 7 6 7 10 13 12 12 3 6 11 19 18 14 13 12 12 15
13 12 11 10 10 8 5 6 5 3 2 -0 -11 -11 -12 -3 -1 -4 -5 -4 3 4 6 9 11 10 8 8 5 5 8 11 16 20 21 19 14 11
8 8 7 6 5 3 4 0 -1 -8 -2 -3 -3 -2 -14 -6 -0 -1 -2 1 3 3 4 4 6 8 7 7 6 5 5 7 11 12 16 23 25 25

GFSNE_sfc_temp_102.txt.gz
Temp
56 56 57 57 56 57 56 55 53 49 50 54 54 56 55 55 56 55 56 54 50 49 49 50 52 54 55 56 57 58 59 60 60 60 61 61 61 61
56 56 56 56 56 56 56 55 54 53 50 54 55 57 56 55 55 55 55 52 50 48 47 48 48 50 51 52 53 54 55 56 56 57 59 58 59 58
57 57 56 56 55 55 55 55 54 53 52 56 55 55 55 56 55 54 54 53 53 48 47 46 46 46 47 47 48 49 50 51 51 51 50 50 51 52
56 56 57 56 55 55 54 54 55 55 54 53 54 53 52 52 52 52 50 52 52 46 45 45 45 45 44 44 44 45 45 45 45 44 44 45 45 45
56 56 57 56 56 56 55 54 54 54 54 54 54 51 49 47 47 47 48 47 48 46 43 43 43 43 43 43 43 43 43 43 42 41 41 42 42 43
57 56 57 56 57 56 56 56 55 53 53 53 53 53 50 46 46 45 42 43 42 45 43 41 42 42 42 41 41 41 42 41 40 39 38 38 38 38
58 57 56 55 51 53 55 55 54 53 53 52 52 53 46 41 42 42 40 38 36 37 39 39 40 39 37 38 39 40 39 39 38 38 38 37 37 38
55 55 55 48 48 40 39 37 39 51 53 52 52 46 42 38 37 37 36 35 33 31 33 31 34 32 35 36 38 38 38 37 37 37 37 36 36 36
54 52 47 43 41 38 36 35 34 34 32 41 44 36 33 34 35 33 32 32 29 28 31 28 30 28 32 34 36 36 35 35 35 35 34 34 34 34
52 52 49 43 40 37 34 32 31 31 32 32 30 30 30 31 32 32 30 28 28 27 28 26 27 26 29 31 35 34 34 33 33 32 33 33 33 33
42 43 46 41 37 37 33 30 29 30 33 34 33 32 32 32 32 31 29 28 26 24 24 25 25 25 28 29 32 32 31 30 31 31 31 31 31 32
34 34 36 36 35 34 32 30 27 27 27 26 26 27 27 27 26 26 27 25 25 23 23 24 24 23 21 28 28 28 27 28 28 28 29 29 29 29
32 32 33 33 34 33 33 30 28 27 26 25 24 23 23 23 23 24 24 24 23 20 23 23 21 21 21 21 25 27 25 24 24 25 26 26 28 27
30 32 32 33 32 31 30 30 29 27 25 23 21 20 20 20 21 22 23 24 24 22 23 23 20 19 17 16 16 22 23 24 24 23 23 25 25 25
31 31 30 30 29 28 28 27 25 23 21 20 18 18 19 21 22 21 23 24 24 24 25 23 20 20 18 16 15 17 18 21 23 22 22 22 21 23
25 24 24 24 23 23 22 23 22 22 20 18 18 19 20 19 18 19 17 19 17 17 22 22 21 20 16 17 17 16 18 15 21 21 21 21 22 22
25 23 22 21 20 20 20 20 20 20 18 18 17 17 17 17 15 17 16 15 13 13 14 18 20 20 20 18 14 17 17 17 19 19 18 17 20 21
22 20 18 18 17 18 17 17 18 17 17 17 16 16 15 14 14 14 14 12 11 12 12 14 14 14 15 18 20 17 16 16 17 17 18 14 15 20
19 18 17 16 16 17 16 16 14 15 16 14 14 13 13 12 11 11 10 10 10 11 12 13 12 10 6 4 13 20 15 14 14 14 16 15 14 17
17 16 15 16 16 15 15 14 13 12 12 11 9 8 8 9 8 8 8 5 7 9 11 12 11 10 7 6 7 12 18 15 14 13 13 16 18 21
14 13 13 13 13 12 10 9 8 7 6 5 4 4 2 6 5 5 5 3 4 8 7 8 11 13 13 12 6 9 13 18 18 14 14 13 14 17
12 12 12 11 10 9 8 6 5 5 4 3 -3 -2 -1 3 2 1 1 2 5 5 7 9 11 11 10 8 6 6 9 12 16 20 21 20 16 12
8 7 7 7 7 6 7 4 2 0 2 2 2 0 -6 -1 1 2 1 2 3 4 5 5 7 9 8 7 6 6 6 9 12 14 18 23 27 25

GFSNE_sfc_temp_105.txt.gz
Temp
58 59 61 63 63 65 63 63 63 58 59 62 62 64 66 65 62 64 64 57 50 49 49 50 52 53 54 55 56 56 58 59 59 60 60 61 61 62
56 55 57 57 60 62 57 57 58 61 58 60 64 67 64 64 63 63 65 55 50 48 48 48 49 50 51 52 52 53 53 54 55 55 56 56 56 55
56 55 56 58 59 60 56 55 56 59 58 59 62 66 64 65 67 65 64 64 64 48 47 46 46 46 47 47 47 48 49 49 49 49 49 49 49 49
55 56 57 56 57 57 56 57 57 62 62 60 61 56 59 63 65 63 60 60 59 46 45 45 45 44 44 44 44 44 44 44 44 44 44 45 46 46
56 56 57 57 56 56 56 56 56 57 58 61 60 58 59 57 58 58 56 51 48 45 43 42 43 42 42 42 42 42 42 41 40 39 39 39 40 41
57 57 58 57 57 57 56 56 56 55 55 55 56 56 58 60 56 56 49 46 43 43 42 41 40 39 40 40 40 40 40 39 38 38 37 37 38 38
56 57 58 56 52 55 57 56 55 54 54 53 52 53 53 46 49 51 47 38 35 38 37 36 35 35 35 37 37 37 36 36 36 37 37 36 36 36
55 56 57 49 49 45 41 40 49 55 54 53 52 51 53 49 42 42 37 35 33 33 33 30 33 31 33 35 35 34 34 34 34 35 35 35 35 35
57 56 56 52 46 42 36 36 35 35 32 44 50 45 39 40 38 35 35 33 29 28 32 27 30 28 32 34 33 33 34 34 34 34 33 33 33 33
61 61 60 56 47 42 38 34 33 34 34 35 33 32 32 33 35 34 31 27 27 26 28 26 28 27 30 33 33 33 32 32 32 32 32 31 31 32
57 60 60 60 41 39 36 32 31 31 33 33 33 32 32 32 34 34 31 30 26 23 24 28 26 28 31 33 35 29 28 30 31 29 29 29 30 30
36 35 35 44 36 36 36 32 28 27 26 26 26 26 27 27 27 27 29 27 26 23 24 28 27 25 25 30 30 32 31 31 29 29 29 29 29 32
33 32 33 33 34 34 33 30 27 26 25 24 23 23 23 23 24 25 27 29 24 22 24 28 26 26 24 26 30 31 31 31 32 32 30 30 29 28
32 32 32 32 31 30 29 29 28 26 24 22 21 20 20 21 23 24 25 25 26 24 26 26 23 23 23 22 23 30 30 30 31 30 31 30 29 29
31 31 31 30 29 28 27 26 24 23 21 19 18 19 20 22 23 23 24 25 25 26 26 26 24 25 24 24 24 25 23 29 30 29 29 29 29 30
25 24 24 24 24 23 23 23 22 22 21 19 18 19 20 20 20 21 21 22 22 21 25 25 26 24 24 25 25 25 28 24 29 28 28 28 30 31
28 27 25 24 22 22 21 20 21 21 20 20 19 19 18 18 18 20 21 21 21 21 22 24 26 26 26 24 24 26 26 26 27 26 25 25 28 29
28 25 24 23 22 21 21 20 21 20 20 20 19 19 19 19 18 19 20 20 19 20 20 21 23 24 25 26 24 23 24 23 24 25 25 22 24 29
26 24 23 23 22 23 22 21 18 19 20 19 19 17 17 17 18 17 18 19 19 19 20 20 20 19 17 16 24 22 20 20 21 22 23 22 21 26
25 23 22 22 22 22 21 20 19 17 17 17 16 16 16 16 15 15 15 15 18 19 19 20 19 17 15 14 14 20 22 20 20 18 20 23 26 26
21 21 21 21 20 19 18 17 16 16 15 14 14 14 14 16 14 15 15 11 15 17 17 17 17 15 19 20 17 19 22 22 21 18 19 19 24 28
19 19 19 19 18 17 16 15 15 14 14 14 12 12 13 15 13 13 13 14 15 16 16 19 19 19 19 16 15 15 19 21 23 24 23 22 23 24
16 17 17 16 16 16 17 15 14 14 13 13 13 12 11 12 13 14 14 14 14 14 14 15 17 18 16 16 13 15 15 17 21 23 27 24 25 26

GFSNE_sfc_temp_108.txt.gz
Temp
59 61 64 64 68 66 70 68 66 60 62 64 68 70 73 73 68 66 68 60 50 50 49 51 53 54 54 55 55 56 57 58 58 59 59 59 60 60
59 59 58 64 66 68 66 66 70 66 62 70 62 70 72 71 68 68 71 59 51 48 47 48 49 50 51 52 52 52 53 54 54 55 55 55 55 54
57 57 57 57 60 59 62 67 64 68 63 65 68 68 63 68 70 70 69 71 64 46 47 46 46 46 47 46 47 48 49 48 48 48 49 49 49 49
57 56 55 56 58 57 63 60 66 67 57 55 61 62 60 60 68 62 63 64 63 45 44 44 43 43 43 43 43 43 43 42 42 42 42 43 43 44
57 57 57 55 55 56 57 61 63 60 57 56 56 59 64 63 56 57 58 55 49 44 42 41 42 42 42 42 42 41 40 39 38 37 37 37 38 39
57 57 57 56 57 56 56 57 59 56 55 55 55 55 56 57 56 54 48 47 44 45 40 39 40 40 40 39 39 38 38 37 37 37 36 36 36 37
57 57 58 56 52 54 56 56 56 56 55 54 53 55 55 51 51 55 50 39 36 39 36 34 35 35 36 37 36 36 36 36 36 36 36 35 35 35
57 57 57 50 49 45 45 43 48 54 53 52 53 52 53 51 48 47 39 36 34 35 34 31 34 32 34 34 34 34 34 34 35 35 35 34 34 34
57 56 54 52 49 50 39 37 36 35 35 50 52 52 48 46 43 40 37 35 31 29 31 27 31 29 32 33 32 32 33 33 34 33 33 33 32 32
56 55 55 53 51 45 41 36 34 34 35 36 35 33 34 36 39 39 35 28 28 28 30 26 29 28 31 32 31 31 31 31 32 32 31 31 31 31
61 61 60 57 47 41 39 33 31 30 33 33 32 32 32 32 35 34 30 30 25 24 27 28 27 29 30 32 35 30 30 30 32 32 31 31 31 31
39 39 36 46 39 37 39 33 28 27 27 27 26 27 28 28 28 29 31 26 24 23 25 27 29 29 28 32 34 36 36 35 33 33 32 32 32 35
33 33 33 34 34 35 34 30 26 25 25 24 24 24 24 24 25 25 26 28 25 22 25 29 27 28 28 30 35 36 35 36 36 37 35 34 32 32
32 32 32 33 32 31 29 29 28 25 24 23 22 22 22 22 24 24 25 25 27 26 27 28 24 28 28 28 30 34 35 36 37 35 36 35 34 34
31 30 30 30 29 28 28 27 25 25 24 23 21 21 23 24 25 24 25 25 26 26 27 28 28 28 28 27 28 31 30 33 36 34 34 34 34 35
26 25 25 26 26 26 26 26 27 27 26 23 23 24 25 24 23 25 23 23 22 22 27 27 28 28 29 31 31 30 32 28 34 33 32 33 35 37
30 30 29 29 29 28 27 27 28 29 27 27 26 26 25 25 23 24 25 26 25 25 26 29 30 30 30 28 28 31 30 30 32 31 30 30 34 36
33 31 29 29 29 28 28 28 29 28 29 28 27 27 26 25 25 27 28 27 25 26 25 27 28 29 31 29 28 28 29 27 29 30 31 28 30 35
30 29 28 28 28 29 28 28 26 27 27 28 27 26 25 25 25 25 26 26 25 27 27 28 27 25 24 23 29 24 24 26 27 27 28 28 28 32
30 28 28 28 29 28 27 27 27 26 26 26 25 25 25 26 25 24 25 24 26 27 28 29 27 23 21 20 19 26 28 25 25 24 25 28 31 30
28 28 28 27 27 26 25 24 24 23 23 23 23 23 24 25 23 24 21 18 22 26 25 25 25 18 25 27 23 25 28 28 26 23 23 23 26 31
27 26 26 26 25 24 23 22 22 22 22 22 21 22 23 24 22 22 22 23 23 24 24 26 27 27 26 23 22 21 25 27 30 29 27 25 25 27
24 25 24 24 24 24 24 23 22 21 21 21 21 21 21 21 23 23 22 22 21 22 22 23 25 27 24 24 21 23 23 25 27 28 31 27 27 26

GFSNE_sfc_temp_111.txt.gz
Temp
59 59 58 59 59 65 69 69 65 58 61 64 64 68 68 69 66 68 70 57 52 51 50 51 53 54 54 55 55 56 57 57 58 58 58 59 59 59
58 58 58 59 59 61 61 61 70 66 59 66 66 67 71 74 70 71 70 60 50 48 48 48 49 50 51 52 52 52 53 53 53 54 54 54 54 53
58 57 57 57 57 58 60 65 60 66 63 66 69 68 66 64 61 67 66 70 54 47 47 47 46 47 47 47 47 47 47 48 48 48 49 49 49 49
56 57 57 56 55 57 56 58 66 63 64 63 69 66 65 63 60 59 62 66 56 44 43 43 43 43 43 43 42 42 41 41 41 41 41 42 43 43
56 56 56 56 55 55 55 56 59 60 59 56 62 64 63 59 55 56 53 49 46 43 42 42 42 43 42 41 41 40 40 39 38 38 37 37 38 39
56 56 55 56 56 55 55 55 55 54 55 55 59 58 55 57 55 54 49 46 43 42 40 40 40 40 40 39 39 39 38 37 37 36 35 36 36 37
55 55 56 55 50 53 55 55 54 54 54 54 55 55 52 53 51 52 50 38 38 38 36 35 35 35 35 36 37 37 36 36 36 36 36 35 35 35
53 54 56 49 49 46 46 47 52 54 53 52 53 50 53 52 52 51 42 37 35 36 34 31 33 33 33 34 34 34 34 35 35 35 34 34 34 34
56 55 55 55 51 55 40 39 37 36 35 51 53 52 50 46 49 44 39 37 34 31 32 28 32 31 33 33 33 32 33 34 34 33 33 33 32 32
57 59 57 53 53 50 42 36 34 34 34 35 34 33 34 36 37 37 33 28 28 28 31 26 30 28 31 31 32 30 31 31 33 33 33 32 32 32
56 57 57 55 45 43 39 32 30 30 33 33 33 33 33 33 35 34 30 30 26 25 26 28 27 28 30 30 30 31 30 30 33 34 33 33 33 33
37 35 35 42 40 39 37 34 29 27 27 27 27 28 28 28 29 31 33 27 25 23 26 26 26 27 26 31 32 32 36 35 35 35 35 35 35 33
34 33 34 35 36 35 35 32 28 26 25 25 25 25 25 25 25 26 27 28 25 23 26 29 27 26 26 29 32 35 35 35 35 36 37 37 35 35
32 32 32 34 33 32 30 30 28 26 25 25 24 23 23 23 25 25 26 27 28 26 28 29 26 26 26 27 29 34 35 36 36 34 35 35 35 36
30 30 30 30 29 28 28 28 27 25 24 23 23 23 24 26 27 27 27 28 28 28 29 30 29 29 29 28 28 30 30 33 35 34 34 33 33 35
27 27 27 27 27 27 28 28 27 27 27 25 25 27 29 29 28 30 28 28 27 26 30 30 30 30 29 31 31 30 32 28 33 33 32 33 35 37
30 30 29 28 28 28 28 28 29 29 29 30 29 28 28 28 28 30 30 30 28 29 29 32 34 32 32 30 29 32 31 31 31 31 31 31 34 36
33 31 30 31 30 30 29 30 31 31 31 30 30 30 29 28 29 30 31 30 28 29 29 31 31 32 32 31 29 29 29 28 30 31 31 28 29 35
31 30 30 30 30 30 30 30 28 30 31 30 30 29 28 28 29 28 29 29 28 29 30 31 29 27 26 24 30 24 26 27 27 27 28 28 27 30
31 30 30 30 30 30 30 29 29 29 29 29 28 28 28 28 27 27 27 27 28 28 29 31 29 25 22 21 21 26 29 26 26 24 24 27 30 31
30 30 30 30 29 29 28 27 26 26 26 26 26 26 27 27 26 25 22 20 21 27 26 27 27 20 26 29 24 26 29 32 28 26 25 24 25 30
29 28 28 28 27 27 26 25 26 25 25 25 25 25 26 26 24 24 24 25 25 25 26 28 29 29 28 25 23 23 26 29 32 31 29 27 26 25
27 27 27 27 27 27 27 25 25 24 24 24 24 24 24 23 24 24 24 24 23 23 24 24 27 28 27 27 23 24 25 26 28 28 31 30 29 28

GFSNE_sfc_temp_114.txt.gz
Temp
58 58 58 58 59 58 58 59 59 51 54 57 58 63 63 62 61 62 62 53 51 50 51 52 53 54 54 55 55 55 56 56 57 57 57 57 58 57
58 58 58 58 57 58 57 56 59 57 52 59 59 60 63 67 62 63 63 51 48 48 48 48 48 50 51 51 52 52 53 53 53 54 54 54 54 53
58 57 57 57 57 57 57 56 56 58 55 56 58 60 60 58 59 60 60 53 48 46 46 46 46 47 47 47 47 48 49 49 49 49 49 49 49 48
57 57 56 57 56 57 56 55 55 57 57 55 56 57 58 58 57 57 58 53 46 44 44 44 44 43 43 43 43 43 43 43 42 42 43 43 43 44
57 56 57 56 55 56 56 54 54 56 56 56 55 56 56 55 55 54 47 43 44 43 42 42 42 42 42 41 41 40 40 39 38 37 37 37 38 38
56 57 57 56 55 55 55 55 54 53 53 53 53 53 53 54 54 51 46 43 41 42 41 40 41 41 41 40 40 39 38 36 35 34 33 33 33 35
55 55 56 55 51 53 54 53 54 53 52 51 51 51 51 50 50 51 47 40 37 37 36 37 36 36 37 38 38 36 35 35 35 36 35 35 35 35
53 53 53 48 48 46 46 47 51 53 51 51 51 49 51 50 50 49 40 37 35 37 33 31 34 33 33 33 35 35 35 35 35 35 34 34 34 34
53 53 52 52 49 51 41 38 37 37 38 52 51 49 48 48 48 46 41 38 35 32 32 28 31 30 32 33 34 33 33 34 35 34 33 33 33 33
54 54 53 51 51 48 40 35 33 33 34 35 35 33 34 36 37 36 34 29 29 29 32 26 29 29 30 31 33 31 31 31 33 34 33 33 34 34
51 44 51 52 44 42 38 33 31 30 34 34 33 33 33 34 35 35 31 31 27 26 27 27 28 28 30 29 31 31 31 30 31 35 35 35 35 35
36 36 35 42 39 38 38 34 29 28 28 27 27 27 28 29 29 30 33 30 26 24 26 26 26 27 25 30 30 30 29 32 31 36 37 37 36 32
33 33 33 35 36 36 36 34 29 27 26 26 26 26 26 26 26 27 27 29 25 23 26 28 26 25 26 25 28 29 30 31 31 33 36 36 36 35
31 31 32 33 33 32 31 30 29 27 27 25 24 23 23 23 24 24 25 26 27 26 28 28 26 26 25 24 26 29 29 30 30 29 29 33 34 35
30 30 31 31 30 29 29 29 27 26 25 23 22 22 23 24 25 25 26 27 28 28 29 29 27 27 26 24 23 24 24 28 28 26 27 27 26 28
27 28 28 28 27 27 27 28 27 26 25 24 24 24 26 26 25 25 24 24 23 21 28 28 27 26 21 24 24 22 25 20 25 25 24 26 28 29
29 29 28 28 27 27 26 27 27 27 26 25 25 25 24 24 23 23 24 22 20 20 21 26 28 28 25 26 21 22 22 22 21 23 25 23 26 29
31 28 27 27 27 27 26 26 27 27 26 26 24 25 23 22 22 23 23 21 19 20 20 22 22 22 24 26 28 21 19 19 22 25 26 21 22 27
28 27 27 26 26 26 25 24 23 24 26 25 23 21 20 22 21 21 21 21 20 20 20 21 21 18 16 12 22 27 18 20 20 18 21 20 19 24
28 26 25 25 25 24 24 24 24 23 23 23 20 19 17 19 18 20 20 15 17 21 22 23 19 17 11 9 9 18 30 19 17 14 16 20 23 29
25 24 24 24 22 22 20 20 20 20 19 18 18 18 15 17 15 16 14 13 13 21 20 19 19 19 20 19 9 12 19 31 27 18 17 16 18 20
23 23 23 22 21 20 17 15 16 17 17 17 13 13 13 14 12 14 14 13 17 16 19 21 24 22 20 20 14 9 16 19 28 31 31 27 18 16
21 22 21 20 20 20 20 18 17 15 15 15 14 13 12 11 15 14 13 14 15 15 17 17 20 20 20 22 16 14 15 14 19 19 21 31 29 29

GFSNE_sfc_temp_117.txt.gz
Temp
58 58 58 58 58 58 58 59 57 50 52 56 57 61 63 62 63 59 59 53 51 51 51 52 54 54 54 56 56 56 56 57 57 57 57 57 57 57
58 58 58 58 58 57 57 57 56 55 52 56 58 58 62 64 58 60 53 50 49 49 48 49 50 52 52 52 52 52 53 54 54 55 55 55 54 55
57 57 57 58 57 57 57 56 55 55 53 56 58 58 57 58 57 56 53 50 48 46 47 48 47 48 48 49 49 50 50 51 52 52 51 50 50 49
56 57 57 57 57 57 57 56 55 54 54 55 56 56 56 56 56 54 52 49 47 45 45 45 44 44 44 44 45 45 45 45 45 45 45 45 44 44
57 56 57 57 56 56 56 55 55 55 54 54 53 54 54 56 52 48 44 43 44 44 42 42 43 43 42 42 42 41 40 39 39 38 38 37 37 38
57 58 57 57 57 56 56 56 54 54 53 52 52 52 52 53 53 48 44 42 40 42 41 41 41 42 41 41 40 39 38 37 36 34 34 33 34 36
56 56 57 56 51 54 56 56 54 54 53 52 50 50 50 50 50 50 46 39 37 38 37 37 37 37 38 38 38 37 35 34 34 34 34 34 34 35
53 53 54 49 48 45 46 47 53 54 52 51 50 48 49 50 49 49 40 38 36 37 34 32 34 32 33 34 35 35 35 35 35 34 34 34 34 34
53 52 51 51 49 50 39 38 37 38 41 52 50 49 48 49 49 46 42 38 36 34 33 29 32 30 33 33 34 34 32 34 34 34 34 34 34 34
53 53 52 50 50 44 39 35 34 34 35 37 38 34 34 36 38 38 36 30 30 30 32 27 30 29 31 32 34 33 31 31 34 35 34 34 34 35
47 44 52 51 42 41 37 33 31 31 34 35 34 34 34 34 35 36 32 33 28 27 29 29 28 28 29 29 31 32 30 31 31 34 35 35 36 35
35 35 35 42 38 38 38 34 30 28 28 28 28 28 29 30 30 31 34 32 27 25 27 26 27 27 25 29 30 29 29 32 32 34 37 37 36 31
33 32 33 35 36 37 37 35 31 28 27 27 26 26 26 26 26 27 28 31 27 24 27 29 26 26 26 25 27 29 29 30 30 31 35 35 36 34
30 31 32 34 33 32 31 31 30 28 27 25 24 23 23 23 24 25 26 27 28 27 29 29 26 26 24 24 24 27 27 27 28 28 27 31 33 34
30 31 32 31 31 30 30 29 28 27 25 23 22 22 23 24 25 25 27 28 28 28 29 28 26 26 23 21 21 21 22 25 25 25 25 25 25 26
28 28 28 28 28 27 27 27 27 26 25 23 23 24 25 26 25 26 23 23 22 22 28 27 27 26 21 23 23 20 23 19 23 23 23 25 26 27
29 29 27 27 26 26 26 26 26 26 25 25 24 24 25 25 23 23 23 23 20 19 20 24 27 27 25 25 20 21 21 21 20 22 23 22 25 27
29 26 25 25 25 25 25 25 26 26 26 25 25 25 23 22 22 23 23 21 20 20 20 20 20 21 23 25 28 20 18 17 20 23 23 18 20 25
26 25 23 23 23 24 24 24 22 23 24 23 22 21 21 22 22 21 20 20 19 19 19 19 18 15 13 8 21 28 15 18 17 16 19 18 16 22
24 23 22 22 22 22 22 22 22 21 21 20 18 16 17 18 18 18 17 11 15 19 20 20 16 15 9 7 6 15 29 18 15 13 14 17 22 27
22 21 20 20 20 20 19 18 18 14 16 15 15 16 11 16 13 14 14 11 15 20 18 16 18 18 18 16 6 9 17 29 26 17 14 11 14 17
22 21 21 20 18 17 14 14 16 15 15 15 10 9 7 12 11 11 11 11 14 14 16 19 22 20 17 18 12 4 13 16 25 29 31 27 18 13
17 18 17 17 17 17 17 15 13 12 12 10 11 11 8 9 12 11 11 11 13 13 14 14 17 18 18 20 15 11 12 11 17 16 16 28 29 30

GFSNE_sfc_temp_120.txt.gz
Temp
59 58 58 58 58 59 59 60 57 50 52 54 55 60 61 60 59 57 60 53 51 51 51 52 54 55 55 56 57 58 58 58 58 58 58 58 58 58
58 57 58 58 58 57 57 57 56 54 52 54 55 57 61 62 59 60 57 52 49 48 48 49 50 52 53 53 54 54 54 55 56 56 56 56 57 56
57 57 57 58 57 57 57 57 55 54 52 53 56 57 56 56 53 53 52 50 48 46 47 47 47 48 50 50 50 50 51 52 53 54 53 53 52 51
56 56 56 57 57 57 56 56 56 55 53 53 54 55 55 55 54 51 50 50 47 47 47 46 46 45 45 45 45 45 45 45 45 46 46 46 45 45
57 56 57 56 56 56 56 55 55 55 54 53 52 53 53 53 47 46 44 44 44 44 43 43 43 43 43 42 42 41 40 39 39 38 38 38 39 39
57 57 57 57 57 56 56 56 55 54 54 53 52 51 52 53 51 45 42 41 40 41 41 41 41 42 41 40 40 39 38 37 36 35 34 34 35 36
56 56 57 56 52 54 56 55 55 54 53 52 50 50 50 51 50 48 43 38 37 38 38 38 38 38 38 38 38 37 36 36 35 35 35 34 34 35
54 55 56 50 49 45 47 47 53 54 53 52 52 50 49 50 50 49 39 37 36 38 34 32 35 33 33 33 36 35 35 35 35 35 34 34 33 34
53 53 52 52 50 51 39 39 38 39 42 55 52 52 48 49 49 46 42 39 38 35 34 30 32 31 33 33 35 35 34 34 34 34 34 34 34 34
53 53 52 50 48 44 39 35 34 35 36 39 45 37 38 41 46 45 40 32 32 31 33 28 30 29 31 32 35 34 33 33 34 34 34 34 35 35
47 44 51 50 40 41 38 33 31 31 35 35 35 35 35 36 37 38 34 34 29 29 30 29 28 28 29 30 32 33 31 30 31 33 35 35 36 35
35 36 35 45 38 38 38 35 31 29 29 29 29 29 30 31 31 33 36 35 28 27 29 27 28 28 25 29 30 30 30 31 33 34 36 37 36 29
33 32 33 37 37 37 38 36 32 29 27 27 27 27 27 27 27 29 30 33 30 26 28 29 27 27 27 26 28 28 29 29 30 29 34 35 35 33
30 32 33 34 34 33 32 31 30 29 28 26 25 24 24 24 25 26 27 28 29 29 30 30 27 27 25 24 23 27 26 26 26 26 26 30 32 33
31 32 32 32 31 30 31 30 29 28 26 24 22 22 23 24 25 25 27 28 28 29 29 29 28 27 25 22 20 21 21 24 25 24 25 25 25 26
28 28 28 28 27 27 27 27 27 27 26 24 23 24 25 25 24 26 24 25 24 23 28 28 28 27 23 23 23 19 22 17 22 22 22 24 26 26
29 29 27 27 25 25 25 26 26 26 25 25 24 24 25 25 24 25 24 23 21 21 21 25 27 27 26 25 19 20 20 19 18 21 22 20 24 24
27 25 24 24 24 24 24 24 25 24 24 24 25 25 24 24 22 23 23 21 20 20 19 19 19 20 22 24 27 19 16 16 18 22 22 16 19 23
24 23 22 22 23 23 23 23 22 23 25 24 23 21 22 22 22 21 20 21 19 18 17 17 16 14 12 8 19 28 14 16 16 15 17 17 15 21
23 21 21 22 22 22 22 22 22 21 21 21 20 20 19 19 18 17 16 13 17 18 18 18 16 14 10 8 7 14 27 17 14 11 12 16 20 26
21 20 21 21 21 20 19 19 18 17 17 16 16 15 12 16 14 14 14 13 15 18 16 15 16 16 17 14 7 8 16 28 24 15 14 9 13 16
20 20 20 19 18 18 17 17 16 16 15 14 10 11 10 13 11 10 11 13 14 13 15 16 20 19 16 16 10 1 11 14 23 28 29 25 14 13
17 17 16 17 17 16 16 14 12 11 12 12 12 11 10 10 11 11 11 12 12 12 12 12 15 16 15 17 12 10 9 9 15 15 15 26 28 28

GFSNE_sfc_temp_123.txt.gz
Temp
59 59 59 59 59 59 59 58 56 51 52 54 54 58 59 59 59 58 59 52 51 51 51 52 54 56 56 57 58 58 60 60 60 60 59 59 59 60
59 58 58 59 57 58 58 59 59 56 53 54 54 57 58 60 58 58 58 53 49 49 49 49 51 53 53 54 54 55 56 56 56 56 57 57 57 58
58 58 58 58 57 57 57 57 55 56 53 53 56 55 55 57 53 53 52 51 48 47 47 47 47 48 49 50 50 51 52 53 53 54 55 56 55 53
57 56 57 57 57 57 57 56 56 55 54 52 53 54 54 54 52 51 50 49 48 46 47 45 45 45 45 45 45 45 46 47 48 49 49 49 48 47
57 57 56 56 56 56 56 56 56 56 54 53 52 53 53 50 46 45 44 43 44 44 44 44 44 43 43 43 43 42 42 41 41 40 41 41 41 41
57 57 57 56 56 56 56 55 55 54 54 53 52 52 52 51 49 44 41 41 40 42 42 41 42 42 42 41 41 40 39 39 37 36 36 35 36 38
56 56 57 55 51 53 56 55 54 54 53 52 52 50 51 49 48 47 42 38 37 38 38 38 38 38 38 39 39 39 38 37 36 35 35 34 35 36
55 55 56 50 49 45 47 47 52 54 53 52 52 52 52 52 49 47 39 37 37 38 34 33 35 33 33 34 37 37 36 36 35 34 34 34 34 34
55 54 54 53 50 52 42 42 39 40 43 54 52 52 50 52 51 45 42 40 38 36 34 30 32 31 33 35 36 36 35 35 35 34 34 34 34 35
54 54 53 52 51 46 41 37 35 35 37 42 51 44 45 49 52 49 42 33 33 32 34 28 31 29 31 33 35 35 34 34 33 34 33 34 35 35
49 49 52 50 40 41 38 34 32 32 35 36 36 35 35 36 40 42 36 36 31 30 31 30 28 28 30 31 33 34 33 32 31 31 34 35 35 36
37 37 36 45 37 38 38 36 33 30 31 32 31 31 32 33 33 34 40 38 29 27 31 28 28 28 25 29 30 30 30 31 31 33 35 37 36 30
34 33 34 36 37 38 38 37 34 31 29 29 28 28 28 28 28 29 31 34 32 29 30 30 28 28 27 26 27 28 29 29 29 30 34 34 35 32
32 32 34 35 35 34 33 32 31 30 29 28 27 25 24 24 25 27 29 29 31 31 30 31 28 28 26 24 24 27 27 27 27 27 26 29 31 33
32 33 33 33 32 31 31 31 30 29 28 25 23 22 23 24 26 27 27 27 27 27 29 30 29 28 27 24 23 23 22 24 25 24 24 24 24 25
28 27 27 28 28 27 27 27 27 27 26 24 23 23 25 24 24 25 24 25 24 24 28 28 28 27 23 25 24 21 22 18 21 21 22 23 25 26
29 28 27 26 25 25 25 26 26 26 25 24 24 23 23 24 24 25 25 25 23 22 22 26 28 27 26 26 20 20 20 19 18 20 21 19 23 23
27 25 24 24 24 24 24 24 25 25 24 24 24 24 23 22 22 24 24 23 20 20 20 21 21 24 23 24 27 19 16 16 17 22 21 16 18 23
23 23 22 23 22 23 22 22 22 24 25 24 23 23 23 22 22 22 21 20 19 18 17 18 20 18 14 10 18 28 14 16 15 14 16 16 14 20
22 20 20 21 21 21 21 21 21 22 22 21 21 20 20 21 20 19 19 18 18 19 19 20 17 16 12 11 9 13 26 16 13 11 12 15 18 25
20 20 20 20 19 19 18 18 18 17 18 17 17 18 17 18 16 17 17 16 18 19 16 16 16 16 16 14 8 9 15 26 23 15 12 8 11 15
18 18 18 18 18 18 18 18 17 17 16 15 12 12 13 15 14 14 15 15 15 15 15 16 19 18 16 16 9 2 10 13 22 27 28 23 12 9
14 14 13 14 15 15 15 14 13 13 14 14 13 13 12 12 14 13 12 13 13 13 13 12 15 14 15 15 11 8 8 8 13 13 13 25 26 27

GFSNE_sfc_temp_126.txt.gz
Temp
60 60 60 59 60 59 59 59 56 51 52 54 55 59 59 59 57 57 59 52 51 51 51 53 55 56 57 57 58 59 60 60 60 61 61 60 60 60
60 59 59 59 59 59 59 59 58 57 53 55 55 57 59 59 56 58 57 53 50 49 49 50 52 53 54 54 55 55 56 57 58 58 58 58 58 58
59 59 59 59 58 58 58 58 57 57 54 54 55 56 57 57 56 56 54 53 51 47 47 47 48 49 50 50 50 52 53 54 54 55 56 56 57 56
58 58 58 57 57 58 57 56 57 57 56 52 54 54 55 57 54 52 50 50 49 47 47 46 46 46 46 46 47 47 48 48 49 50 52 51 51 50
59 58 57 57 56 57 57 56 56 55 56 55 53 54 51 50 46 45 45 44 45 46 45 45 46 45 45 45 44 44 43 43 42 42 43 43 43 43
58 58 58 57 57 57 56 56 56 55 55 54 52 54 52 49 48 44 41 41 40 42 42 42 43 43 43 42 42 42 41 40 39 38 37 37 38 38
57 57 57 56 51 54 56 56 55 55 54 53 52 51 50 47 46 46 42 38 37 39 39 38 39 39 39 40 40 40 39 38 37 37 36 36 35 36
56 56 56 50 49 45 47 47 53 54 53 53 53 52 51 49 48 45 39 37 36 38 35 33 36 33 35 36 39 38 37 37 36 36 35 35 34 34
56 55 55 54 50 53 44 43 43 44 44 55 53 53 52 51 49 43 42 40 38 36 36 31 32 31 34 36 37 37 36 36 35 35 34 35 35 35
55 55 55 53 53 50 44 39 37 37 40 44 52 49 50 52 51 49 45 33 33 34 34 29 31 30 32 33 36 36 36 35 34 34 33 32 34 35
54 54 55 53 43 43 42 36 34 32 36 37 37 37 37 40 44 43 38 38 32 32 32 31 29 29 30 31 33 35 34 34 33 33 33 34 36 36
40 40 42 48 38 39 41 38 35 32 32 33 33 33 34 34 33 38 43 41 33 31 33 30 29 28 25 30 31 31 31 32 32 32 32 35 36 35
37 34 34 37 38 38 39 39 36 33 31 32 31 30 30 30 31 32 33 39 34 31 32 31 29 28 28 26 28 29 30 30 30 31 34 35 35 34
34 33 34 36 36 35 34 33 33 32 32 30 28 26 26 26 27 28 30 31 32 32 32 32 30 29 27 25 24 27 28 29 31 31 32 32 32 33
33 33 34 33 32 32 32 32 32 31 30 27 23 22 24 26 28 28 28 29 27 28 30 31 31 29 28 26 24 25 25 27 30 29 30 30 30 31
28 28 28 28 28 28 28 28 29 29 27 24 23 24 26 26 26 28 26 26 25 24 27 28 28 28 25 26 26 24 26 23 27 27 28 28 30 30
29 28 27 27 26 25 26 26 27 27 25 25 24 24 24 24 24 25 25 25 23 22 22 25 28 28 28 28 24 25 24 24 25 26 26 25 27 29
27 25 24 24 24 24 24 24 25 25 25 25 25 24 23 23 23 23 24 23 21 21 22 25 26 26 26 27 29 23 23 23 24 26 25 23 24 28
23 22 22 22 22 23 23 23 22 24 25 24 23 23 23 23 22 21 21 22 21 22 21 23 24 23 20 17 22 29 22 22 22 23 23 23 22 25
21 20 19 20 20 21 21 21 21 22 22 22 22 22 22 22 21 20 20 20 21 21 21 22 21 21 20 18 19 21 26 23 22 21 21 22 23 25
19 18 19 19 19 19 19 19 19 19 19 19 19 19 20 21 19 20 19 19 20 21 18 18 19 18 20 20 18 18 21 26 25 22 21 19 19 21
17 17 17 17 18 18 18 19 18 18 18 17 16 17 18 19 18 18 18 18 18 18 17 19 21 22 21 20 15 14 18 19 23 26 27 25 20 16
13 13 13 14 16 16 17 17 16 16 16 16 16 16 17 15 16 17 16 17 17 16 16 16 18 19 18 17 16 15 14 16 18 18 20 24 25 25